Latitude: N 50° 09' 49" Longitude: W 05° 11' 53" Elevation: 168m ASL

There are 23 visitors online

Adverts

<- Previous Day | Today | Next Day ->

All Data for 22 May 2019

Time
A - D
Temp
A - D
Dew Point
A - D
Humidity
A - D
Pressure
A - D
Wind
A - D
Wind Dir Gust
A - D
Rain Rate
A - D
Rain Total
00:00 11.1 6.6 74 1021.4 0.0 NW 2.2 0.0 0.0
00:01 11.1 6.6 74 1021.4 0.0 NW 2.2 0.0 0.0
00:02 11.1 6.6 74 1021.5 0.0 NW 2.2 0.0 0.0
00:03 11.1 6.6 74 1021.6 0.0 NW 2.2 0.0 0.0
00:04 11.1 6.6 74 1021.5 0.0 NW 2.2 0.0 0.0
00:05 11.1 6.6 74 1021.6 0.0 NW 2.2 0.0 0.0
00:06 11.1 6.6 74 1021.5 0.0 NW 2.2 0.0 0.0
00:07 11.1 6.6 74 1021.6 0.0 NW 0.7 0.0 0.0
00:08 11.1 6.6 74 1021.5 0.0 NW 0.7 0.0 0.0
00:09 11.0 6.7 75 1021.5 0.0 NW 0.7 0.0 0.0
00:10 11.0 6.7 75 1021.6 3.1 NW 3.1 0.0 0.0
00:11 11.0 6.7 75 1021.6 2.2 N 3.1 0.0 0.0
00:12 11.0 6.7 75 1021.5 1.6 N 3.1 0.0 0.0
00:13 11.0 6.7 75 1021.5 1.6 N 3.1 0.0 0.0
00:14 11.0 6.7 75 1021.6 0.7 NW 3.1 0.0 0.0
00:15 11.0 6.7 75 1021.5 0.7 N 3.1 0.0 0.0
00:17 11.0 6.7 75 1021.6 1.6 N 3.1 0.0 0.0
00:18 11.0 6.7 75 1021.5 0.7 NE 3.1 0.0 0.0
00:19 11.0 6.7 75 1021.5 2.2 N 3.1 0.0 0.0
00:20 11.0 6.7 75 1021.5 2.2 NE 3.1 0.0 0.0
00:21 11.0 6.7 75 1021.6 1.6 N 2.2 0.0 0.0
00:22 11.0 6.7 75 1021.6 3.1 N 3.1 0.0 0.0
00:23 11.0 6.7 75 1021.6 1.6 N 3.1 0.0 0.0
00:24 11.0 6.7 75 1021.7 0.0 NW 3.1 0.0 0.0
00:25 11.0 6.7 75 1021.8 0.7 N 3.1 0.0 0.0
00:26 11.0 6.7 75 1021.8 0.0 NW 3.1 0.0 0.0
00:27 11.0 6.7 75 1021.7 0.0 NE 3.1 0.0 0.0
00:28 11.0 6.7 75 1021.8 0.0 NW 3.1 0.0 0.0
00:29 11.0 6.7 75 1021.7 0.0 NW 3.1 0.0 0.0
00:30 11.0 6.7 75 1021.6 0.0 ENE 3.1 0.0 0.0
00:31 11.0 6.7 75 1021.6 0.0 N 3.1 0.0 0.0
00:32 10.9 6.8 76 1021.7 0.0 N 2.2 0.0 0.0
00:33 10.9 6.8 76 1021.7 2.2 N 2.2 0.0 0.0
00:34 10.9 6.8 76 1021.7 0.7 N 2.2 0.0 0.0
00:36 11.0 6.9 76 1021.7 0.7 NW 2.2 0.0 0.0
00:37 10.9 6.8 76 1021.7 0.7 NE 2.2 0.0 0.0
00:38 10.8 6.7 76 1021.6 0.7 NW 2.2 0.0 0.0
00:39 10.8 6.7 76 1021.6 1.6 WNW 2.2 0.0 0.0
00:40 10.8 6.7 76 1021.6 1.6 NE 2.2 0.0 0.0
00:41 10.9 6.8 76 1021.6 0.0 N 2.2 0.0 0.0
00:42 10.9 6.8 76 1021.6 0.7 NW 2.2 0.0 0.0
00:43 10.9 6.8 76 1021.5 0.7 N 2.2 0.0 0.0
00:44 10.9 6.8 76 1021.6 0.7 W 1.6 0.0 0.0
00:45 10.9 6.8 76 1021.7 0.7 N 1.6 0.0 0.0
00:46 10.9 6.8 76 1021.5 1.6 NW 1.6 0.0 0.0
00:47 10.9 6.8 76 1021.6 0.0 NW 1.6 0.0 0.0
00:48 10.9 6.8 76 1021.6 0.0 NW 1.6 0.0 0.0
00:49 10.9 6.8 76 1021.5 0.0 N 2.2 0.0 0.0
00:50 10.9 6.8 76 1021.7 0.0 N 2.2 0.0 0.0
00:51 10.9 6.8 76 1021.7 0.0 WNW 2.2 0.0 0.0
00:52 10.9 6.8 76 1021.6 0.0 N 2.2 0.0 0.0
00:53 10.9 6.8 76 1021.6 0.7 NW 2.2 0.0 0.0
00:54 10.9 6.8 76 1021.6 1.6 N 2.2 0.0 0.0
00:56 10.8 6.7 76 1021.5 0.0 N 2.2 0.0 0.0
00:57 10.8 6.9 77 1021.6 0.0 NW 2.2 0.0 0.0
00:58 10.9 6.8 76 1021.6 0.7 WNW 2.2 0.0 0.0
00:59 10.8 6.7 76 1021.6 1.6 N 1.6 0.0 0.0
01:00 10.9 7.0 77 1021.5 2.2 N 2.2 0.0 0.0
01:01 10.9 7.0 77 1021.7 2.2 N 2.2 0.0 0.0
01:02 10.9 7.0 77 1021.7 2.2 N 2.2 0.0 0.0
01:03 10.9 7.0 77 1021.5 2.2 N 2.2 0.0 0.0
01:04 10.9 7.0 77 1021.5 2.2 N 2.2 0.0 0.0
01:05 10.9 7.0 77 1021.6 2.2 N 2.2 0.0 0.0
01:06 10.9 7.0 77 1021.5 0.0 NW 2.2 0.0 0.0
01:07 10.8 6.9 77 1021.5 0.0 NW 2.2 0.0 0.0
01:08 10.8 6.9 77 1021.5 0.0 NW 2.2 0.0 0.0
01:09 10.8 6.9 77 1021.5 0.0 NW 2.2 0.0 0.0
01:10 10.8 6.9 77 1021.6 0.0 NW 2.2 0.0 0.0
01:11 10.8 6.9 77 1021.6 0.0 N 2.2 0.0 0.0
01:12 10.8 6.9 77 1021.5 0.0 NW 2.2 0.0 0.0
01:13 10.8 6.9 77 1021.5 0.0 N 2.2 0.0 0.0
01:14 10.8 6.9 77 1021.5 0.0 NW 2.2 0.0 0.0
01:15 10.8 6.9 77 1021.5 2.2 NW 2.2 0.0 0.0
01:16 10.8 6.9 77 1021.5 0.0 N 2.2 0.0 0.0
01:17 10.8 6.9 77 1021.5 0.0 N 2.2 0.0 0.0
01:18 10.8 6.9 77 1021.4 0.7 NW 2.2 0.0 0.0
01:20 10.8 6.9 77 1021.3 0.0 N 2.2 0.0 0.0
01:21 10.8 6.9 77 1021.6 0.7 NW 2.2 0.0 0.0
01:22 10.8 6.9 77 1021.6 0.0 NE 2.2 0.0 0.0
01:23 10.8 6.9 77 1021.5 0.0 NE 2.2 0.0 0.0
01:24 10.8 6.9 77 1021.5 0.0 N 2.2 0.0 0.0
01:25 10.8 6.9 77 1021.4 0.7 N 2.2 0.0 0.0
01:26 10.8 6.9 77 1021.4 0.0 N 2.2 0.0 0.0
01:27 10.8 7.1 78 1021.5 0.7 NW 1.6 0.0 0.0
01:28 10.8 7.1 78 1021.4 0.7 N 1.6 0.0 0.0
01:29 10.8 7.1 78 1021.5 1.6 NW 1.6 0.0 0.0
01:30 10.8 7.1 78 1021.5 0.0 N 1.6 0.0 0.0
01:31 10.7 7.0 78 1021.5 0.7 N 1.6 0.0 0.0
01:32 10.7 7.0 78 1021.4 1.6 NE 1.6 0.0 0.0
01:33 10.7 7.0 78 1021.4 0.7 NW 1.6 0.0 0.0
01:34 10.7 7.0 78 1021.5 0.7 NW 1.6 0.0 0.0
01:35 10.7 7.0 78 1021.4 0.0 N 1.6 0.0 0.0
01:36 10.7 7.0 78 1021.4 0.0 N 1.6 0.0 0.0
01:37 10.7 7.0 78 1021.5 0.0 NW 1.6 0.0 0.0
01:39 10.7 7.0 78 1021.4 0.0 NW 1.6 0.0 0.0
01:40 10.7 7.0 78 1021.3 0.0 NW 1.6 0.0 0.0
01:41 10.7 7.0 78 1021.3 0.0 NW 1.6 0.0 0.0
01:42 10.7 7.0 78 1021.5 0.0 N 1.6 0.0 0.0
01:43 10.7 7.0 78 1021.3 0.0 N 0.7 0.0 0.0
01:44 10.6 6.9 78 1021.4 0.0 N 0.7 0.0 0.0
01:45 10.6 6.9 78 1021.5 0.7 N 0.7 0.0 0.0
01:46 10.6 6.9 78 1021.5 0.0 N 0.7 0.0 0.0
01:47 10.6 6.9 78 1021.6 2.2 N 2.2 0.0 0.0
01:48 10.6 6.9 78 1021.5 1.6 NW 2.2 0.0 0.0
01:49 10.6 6.9 78 1021.5 0.0 N 2.2 0.0 0.0
01:50 10.6 6.9 78 1021.4 0.0 NW 2.2 0.0 0.0
01:51 10.6 6.9 78 1021.4 0.0 N 2.2 0.0 0.0
01:52 10.6 6.9 78 1021.4 0.0 N 2.2 0.0 0.0
01:53 10.6 6.9 78 1021.3 0.0 N 2.2 0.0 0.0
01:54 10.6 6.9 78 1021.5 0.0 N 2.2 0.0 0.0
01:55 10.5 6.8 78 1021.5 0.0 N 2.2 0.0 0.0
01:56 10.5 6.8 78 1021.5 0.0 N 2.2 0.0 0.0
01:58 10.5 6.8 78 1021.5 0.0 NW 0.0 0.0 0.0
01:59 10.5 6.8 78 1021.5 0.0 N 0.0 0.0 0.0
02:00 10.5 6.8 78 1021.5 0.0 N 0.0 0.0 0.0
02:01 10.5 6.8 78 1021.5 0.0 N 0.0 0.0 0.0
02:02 10.5 6.8 78 1021.5 0.0 N 0.0 0.0 0.0
02:03 10.5 6.8 78 1021.5 0.0 N 0.0 0.0 0.0
02:04 10.5 6.8 78 1021.4 0.0 N 0.0 0.0 0.0
02:05 10.5 6.8 78 1021.4 0.0 N 0.0 0.0 0.0
02:06 10.5 6.8 78 1021.4 0.0 N 0.0 0.0 0.0
02:07 10.5 7.0 79 1021.5 0.0 N 0.0 0.0 0.0
02:08 10.5 6.8 78 1021.4 1.6 NW 1.6 0.0 0.0
02:09 10.5 7.0 79 1021.4 0.0 NW 1.6 0.0 0.0
02:10 10.5 7.0 79 1021.4 0.7 N 2.2 0.0 0.0
02:11 10.5 7.0 79 1021.5 0.0 NW 2.2 0.0 0.0
02:12 10.5 7.0 79 1021.4 0.0 N 2.2 0.0 0.0
02:13 10.5 7.0 79 1021.5 0.0 N 2.2 0.0 0.0
02:14 10.5 7.0 79 1021.3 0.0 WNW 2.2 0.0 0.0
02:16 10.5 7.0 79 1021.4 0.0 N 2.2 0.0 0.0
02:17 10.5 7.0 79 1021.4 0.7 NW 2.2 0.0 0.0
02:18 10.5 7.0 79 1021.4 0.0 NW 2.2 0.0 0.0
02:19 10.5 7.0 79 1021.3 0.0 NW 2.2 0.0 0.0
02:20 10.5 7.0 79 1021.4 0.0 NW 0.7 0.0 0.0
02:21 10.5 7.0 79 1021.4 0.0 NW 0.7 0.0 0.0
02:22 10.5 7.0 79 1021.4 0.0 NW 0.7 0.0 0.0
02:23 10.4 6.9 79 1021.2 0.0 NW 0.7 0.0 0.0
02:24 10.5 7.0 79 1021.2 0.0 NW 0.7 0.0 0.0
02:25 10.4 6.9 79 1021.3 0.0 NW 0.7 0.0 0.0
02:26 10.4 6.9 79 1021.4 0.0 NW 0.7 0.0 0.0
02:27 10.4 6.9 79 1021.3 0.0 NW 0.7 0.0 0.0
02:28 10.4 6.9 79 1021.3 0.0 NW 0.0 0.0 0.0
02:29 10.4 6.9 79 1021.3 0.7 NW 0.7 0.0 0.0
02:30 10.4 6.9 79 1021.2 1.6 W 1.6 0.0 0.0
02:31 10.4 6.9 79 1021.2 0.0 NW 1.6 0.0 0.0
02:32 10.4 6.9 79 1021.2 0.0 N 1.6 0.0 0.0
02:34 10.4 6.9 79 1021.2 0.0 NW 1.6 0.0 0.0
02:35 10.4 6.9 79 1021.2 0.7 NW 1.6 0.0 0.0
02:37 10.4 6.9 79 1021.3 0.7 NW 1.6 0.0 0.0
02:38 10.4 6.9 79 1021.2 1.6 NW 1.6 0.0 0.0
02:39 10.4 6.9 79 1021.3 0.7 N 1.6 0.0 0.0
02:40 10.4 6.9 79 1021.2 0.7 N 1.6 0.0 0.0
02:41 10.4 6.9 79 1021.2 0.7 N 1.6 0.0 0.0
02:42 10.4 6.9 79 1021.4 0.0 NW 1.6 0.0 0.0
02:43 10.4 6.9 79 1021.2 0.0 NW 1.6 0.0 0.0
02:44 10.4 6.9 79 1021.2 0.0 NW 1.6 0.0 0.0
02:45 10.3 6.8 79 1021.4 0.0 N 1.6 0.0 0.0
02:46 10.3 6.8 79 1021.2 0.0 WNW 1.6 0.0 0.0
02:47 10.3 6.8 79 1021.2 0.0 N 1.6 0.0 0.0
02:48 10.3 6.8 79 1021.1 0.0 NW 1.6 0.0 0.0
02:49 10.3 6.8 79 1021.2 0.0 NW 0.7 0.0 0.0
02:50 10.3 7.0 80 1021.3 0.0 N 0.7 0.0 0.0
02:51 10.3 6.8 79 1021.2 0.0 NW 0.7 0.0 0.0
02:52 10.3 7.0 80 1021.3 0.0 N 0.0 0.0 0.0
02:53 10.3 7.0 80 1021.2 0.0 N 0.0 0.0 0.0
02:54 10.3 7.0 80 1021.3 0.0 NW 0.0 0.0 0.0
02:56 10.3 7.0 80 1021.1 0.0 NW 0.0 0.0 0.0
02:57 10.2 6.9 80 1021.2 0.0 N 0.0 0.0 0.0
02:58 10.2 6.9 80 1021.2 0.0 N 0.0 0.0 0.0
02:59 10.2 6.9 80 1021.2 0.0 NW 0.0 0.0 0.0
03:00 10.2 6.9 80 1021.1 0.0 NW 0.0 0.0 0.0
03:01 10.2 6.9 80 1021.1 0.0 NW 0.0 0.0 0.0
03:02 10.2 6.9 80 1021.1 0.0 NW 0.0 0.0 0.0
03:03 10.2 6.9 80 1021.0 0.0 NW 0.0 0.0 0.0
03:04 10.2 6.9 80 1021.1 0.0 NW 0.0 0.0 0.0
03:05 10.2 6.9 80 1021.1 0.0 NW 0.0 0.0 0.0
03:06 10.2 6.9 80 1021.1 0.0 NW 0.0 0.0 0.0
03:07 10.2 6.9 80 1021.2 0.0 N 0.0 0.0 0.0
03:08 10.2 6.9 80 1021.1 0.0 N 0.0 0.0 0.0
03:09 10.2 6.9 80 1021.2 0.0 N 0.0 0.0 0.0
03:10 10.2 6.9 80 1021.1 0.0 N 0.0 0.0 0.0
03:11 10.1 6.8 80 1021.1 0.0 N 0.0 0.0 0.0
03:12 10.1 6.8 80 1021.1 0.0 N 0.0 0.0 0.0
03:13 10.1 6.8 80 1021.0 0.0 N 0.0 0.0 0.0
03:14 10.1 6.8 80 1021.1 0.0 NW 0.0 0.0 0.0
03:15 10.1 6.8 80 1021.1 0.0 N 0.0 0.0 0.0
03:17 10.1 6.8 80 1021.1 0.0 NW 0.0 0.0 0.0
03:18 10.1 6.8 80 1021.1 0.0 NW 0.0 0.0 0.0
03:19 10.1 6.8 80 1021.0 0.0 NW 0.0 0.0 0.0
03:20 10.1 6.8 80 1021.1 0.0 NW 0.0 0.0 0.0
03:21 10.1 6.8 80 1021.0 0.0 W 0.0 0.0 0.0
03:22 10.1 6.8 80 1021.1 0.0 NW 0.0 0.0 0.0
03:23 10.1 6.8 80 1021.1 0.0 NW 0.0 0.0 0.0
03:24 10.0 6.7 80 1021.0 0.0 NW 0.0 0.0 0.0
03:25 10.1 6.8 80 1021.1 0.0 NW 0.0 0.0 0.0
03:26 10.0 6.7 80 1021.2 0.0 NW 0.0 0.0 0.0
03:27 10.0 6.7 80 1021.2 0.0 NW 0.0 0.0 0.0
03:28 10.1 6.8 80 1021.1 0.0 NW 0.0 0.0 0.0
03:29 10.1 6.8 80 1021.1 0.0 NE 0.0 0.0 0.0
03:30 10.1 6.8 80 1021.0 0.0 NE 0.0 0.0 0.0
03:31 10.1 6.8 80 1021.2 0.0 NE 0.0 0.0 0.0
03:32 10.1 6.8 80 1021.2 0.0 NW 0.0 0.0 0.0
03:33 10.1 6.8 80 1021.0 0.0 NW 0.0 0.0 0.0
03:34 10.1 6.8 80 1021.1 0.0 N 0.0 0.0 0.0
03:36 10.1 6.8 80 1021.0 0.0 N 0.0 0.0 0.0
03:37 10.1 6.8 80 1021.1 0.0 N 0.0 0.0 0.0
03:38 10.1 7.0 81 1021.0 0.0 N 0.0 0.0 0.0
03:39 10.1 7.0 81 1021.0 0.0 N 0.0 0.0 0.0
03:40 10.1 7.0 81 1021.2 0.0 N 0.0 0.0 0.0
03:41 10.1 7.0 81 1021.0 0.0 N 0.0 0.0 0.0
03:42 10.1 7.0 81 1021.0 0.0 NW 0.0 0.0 0.0
03:43 10.1 7.0 81 1021.0 0.0 NW 0.0 0.0 0.0
03:44 10.1 7.0 81 1021.1 0.0 NW 0.0 0.0 0.0
03:45 10.1 7.0 81 1021.1 0.0 NW 0.0 0.0 0.0
03:46 10.1 7.0 81 1020.9 0.0 N 0.0 0.0 0.0
03:47 10.1 7.0 81 1020.9 0.0 NW 0.0 0.0 0.0
03:48 10.1 7.0 81 1020.8 0.0 N 0.0 0.0 0.0
03:49 10.1 7.0 81 1021.0 0.0 NW 0.0 0.0 0.0
03:50 10.1 7.0 81 1020.9 0.0 N 0.0 0.0 0.0
03:51 10.1 7.0 81 1020.9 0.0 NW 0.0 0.0 0.0
03:52 10.1 7.0 81 1020.9 0.0 N 0.0 0.0 0.0
03:53 10.1 7.0 81 1020.9 0.0 N 0.0 0.0 0.0
03:54 10.1 7.0 81 1020.8 0.0 NE 0.0 0.0 0.0
03:55 10.1 7.0 81 1020.9 0.0 NE 0.0 0.0 0.0
03:57 10.1 7.0 81 1020.8 0.0 NW 0.0 0.0 0.0
03:58 10.1 7.0 81 1021.0 0.0 N 0.0 0.0 0.0
03:59 10.2 7.1 81 1020.9 0.0 NE 0.0 0.0 0.0
04:00 10.2 7.1 81 1020.9 0.0 NW 0.0 0.0 0.0
04:01 10.2 7.1 81 1020.8 0.0 NW 0.0 0.0 0.0
04:02 10.2 7.1 81 1020.8 0.0 NW 0.0 0.0 0.0
04:03 10.2 7.1 81 1020.8 0.0 NW 0.0 0.0 0.0
04:04 10.2 7.1 81 1020.7 0.0 NW 0.0 0.0 0.0
04:05 10.2 7.1 81 1020.9 0.0 NW 0.0 0.0 0.0
04:06 10.2 7.1 81 1020.9 0.0 NW 0.0 0.0 0.0
04:07 10.2 7.1 81 1020.9 0.0 NW 0.0 0.0 0.0
04:08 10.2 7.1 81 1020.6 0.0 N 0.0 0.0 0.0
04:09 10.2 7.1 81 1020.7 0.0 NW 0.0 0.0 0.0
04:10 10.3 7.2 81 1020.7 0.0 NE 0.0 0.0 0.0
04:11 10.3 7.4 82 1020.8 0.0 N 0.0 0.0 0.0
04:12 10.3 7.4 82 1020.8 0.0 N 0.0 0.0 0.0
04:13 10.3 7.4 82 1020.8 0.0 N 0.0 0.0 0.0
04:14 10.3 7.4 82 1020.7 0.0 N 0.0 0.0 0.0
04:15 10.3 7.2 81 1020.7 0.0 NW 0.0 0.0 0.0
04:16 10.3 7.4 82 1020.7 1.6 N 1.6 0.0 0.0
04:17 10.3 7.4 82 1020.9 1.6 N 1.6 0.0 0.0
04:18 10.3 7.4 82 1020.6 2.2 NE 2.2 0.0 0.0
04:19 10.3 7.4 82 1020.8 1.6 NE 2.2 0.0 0.0
04:20 10.3 7.4 82 1020.7 2.2 NW 2.2 0.0 0.0
04:21 10.3 7.4 82 1020.8 1.6 SW 2.2 0.0 0.0
04:22 10.3 7.4 82 1020.9 0.0 NE 2.2 0.0 0.0
04:23 10.3 7.4 82 1020.9 0.0 N 2.2 0.0 0.0
04:24 10.3 7.4 82 1020.8 0.0 N 2.2 0.0 0.0
04:25 10.3 7.4 82 1020.7 0.0 N 2.2 0.0 0.0
04:26 10.3 7.4 82 1020.6 0.0 N 2.2 0.0 0.0
04:27 10.3 7.4 82 1020.7 0.0 N 2.2 0.0 0.0
04:28 10.3 7.4 82 1020.8 0.7 W 2.2 0.0 0.0
04:29 10.3 7.4 82 1020.7 1.6 N 2.2 0.0 0.0
04:30 10.3 7.4 82 1020.7 2.2 NE 2.2 0.0 0.0
04:31 10.3 7.4 82 1020.6 1.6 NE 2.2 0.0 0.0
04:32 10.3 7.4 82 1020.8 1.6 NE 2.2 0.0 0.0
04:33 10.3 7.4 82 1020.7 1.6 N 2.2 0.0 0.0
04:35 10.2 7.3 82 1020.7 1.6 N 2.2 0.0 0.0
04:36 10.2 7.3 82 1020.6 0.0 N 2.2 0.0 0.0
04:37 10.2 7.3 82 1020.7 0.0 NE 2.2 0.0 0.0
04:38 10.2 7.3 82 1020.7 0.0 NE 2.2 0.0 0.0
04:39 10.2 7.3 82 1020.6 0.0 N 2.2 0.0 0.0
04:40 10.2 7.3 82 1020.7 0.0 NE 1.6 0.0 0.0
04:41 10.2 7.3 82 1020.8 0.0 NE 1.6 0.0 0.0
04:42 10.2 7.1 81 1020.6 3.1 NNE 3.1 0.0 0.0
04:43 10.2 7.1 81 1020.8 3.1 NNE 3.1 0.0 0.0
04:44 10.2 7.1 81 1020.7 3.1 NE 3.1 0.0 0.0
04:45 10.2 7.1 81 1020.8 2.2 N 3.1 0.0 0.0
04:46 10.1 7.2 82 1020.9 3.1 N 3.1 0.0 0.0
04:47 10.1 7.2 82 1020.9 2.2 N 3.1 0.0 0.0
04:48 10.1 7.0 81 1020.7 2.2 NE 3.1 0.0 0.0
04:49 10.1 7.0 81 1020.7 0.0 NE 3.1 0.0 0.0
04:50 10.1 7.0 81 1020.9 0.7 N 3.1 0.0 0.0
04:51 10.1 7.0 81 1020.7 0.0 N 3.1 0.0 0.0
04:52 10.1 7.0 81 1020.8 0.0 N 3.1 0.0 0.0
04:54 10.1 7.0 81 1020.7 0.0 N 3.1 0.0 0.0
04:55 10.1 7.0 81 1020.8 0.0 N 3.1 0.0 0.0
04:56 10.1 7.0 81 1020.9 0.0 NW 2.2 0.0 0.0
04:57 10.0 6.9 81 1020.8 0.0 NE 2.2 0.0 0.0
04:58 10.0 6.9 81 1020.7 0.0 N 2.2 0.0 0.0
04:59 10.0 6.9 81 1020.8 0.0 N 0.7 0.0 0.0
05:00 10.0 6.9 81 1020.7 0.0 N 0.0 0.0 0.0
05:01 10.0 6.9 81 1020.7 0.0 N 0.0 0.0 0.0
05:02 10.0 6.9 81 1020.8 0.0 N 0.0 0.0 0.0
05:03 10.0 6.9 81 1020.8 0.0 N 0.0 0.0 0.0
05:04 10.0 6.9 81 1020.9 0.0 N 0.0 0.0 0.0
05:05 10.0 6.9 81 1020.9 0.0 N 0.0 0.0 0.0
05:06 10.0 6.9 81 1020.8 1.6 N 1.6 0.0 0.0
05:07 10.0 6.9 81 1020.8 0.7 N 1.6 0.0 0.0
05:08 10.0 6.9 81 1020.8 2.2 N 2.2 0.0 0.0
05:09 10.0 6.9 81 1020.8 2.2 NE 2.2 0.0 0.0
05:10 10.0 6.9 81 1020.8 2.2 N 2.2 0.0 0.0
05:11 10.0 6.9 81 1020.8 1.6 N 2.2 0.0 0.0
05:13 10.0 6.9 81 1020.9 0.0 NE 3.1 0.0 0.0
05:14 10.0 7.1 82 1020.8 0.0 NE 3.1 0.0 0.0
05:15 10.0 7.1 82 1020.9 0.0 NE 3.1 0.0 0.0
05:16 10.0 6.9 81 1020.9 0.0 NE 3.1 0.0 0.0
05:17 10.1 7.2 82 1020.7 0.0 NE 3.1 0.0 0.0
05:18 10.1 7.2 82 1020.8 0.0 NE 3.1 0.0 0.0
05:19 10.1 7.2 82 1020.7 0.0 N 3.1 0.0 0.0
05:20 10.1 7.2 82 1020.8 0.0 N 3.1 0.0 0.0
05:21 10.1 7.2 82 1020.8 0.0 NE 3.1 0.0 0.0
05:22 10.0 7.1 82 1020.9 2.2 NE 2.2 0.0 0.0
05:23 10.1 7.2 82 1020.8 2.2 NE 2.2 0.0 0.0
05:24 10.1 7.2 82 1020.7 2.2 NE 2.2 0.0 0.0
05:25 10.1 7.2 82 1020.9 2.2 N 2.2 0.0 0.0
05:26 10.1 7.2 82 1020.8 1.6 NNW 2.2 0.0 0.0
05:27 10.1 7.2 82 1020.8 1.6 NE 2.2 0.0 0.0
05:28 10.1 7.2 82 1020.9 1.6 N 2.2 0.0 0.0
05:29 10.1 7.2 82 1020.9 1.6 N 2.2 0.0 0.0
05:30 10.1 7.2 82 1020.7 2.2 NW 2.2 0.0 0.0
05:31 10.1 7.2 82 1020.7 1.6 N 2.2 0.0 0.0
05:32 10.1 7.2 82 1020.8 1.6 NE 2.2 0.0 0.0
05:33 10.1 7.2 82 1020.7 0.0 NE 2.2 0.0 0.0
05:34 10.1 7.2 82 1020.8 0.7 NE 2.2 0.0 0.0
05:35 10.1 7.2 82 1020.7 0.0 N 2.2 0.0 0.0
05:36 10.1 7.2 82 1020.8 0.0 NNE 2.2 0.0 0.0
05:37 10.1 7.2 82 1020.8 0.0 N 2.2 0.0 0.0
05:38 10.1 7.2 82 1020.7 0.0 N 2.2 0.0 0.0
05:39 10.1 7.2 82 1020.8 0.0 N 2.2 0.0 0.0
05:40 10.1 7.2 82 1020.7 0.0 N 2.2 0.0 0.0
05:41 10.1 7.2 82 1020.7 0.0 N 1.6 0.0 0.0
05:42 10.1 7.2 82 1020.7 0.0 N 1.6 0.0 0.0
05:43 10.1 7.2 82 1020.8 0.0 N 0.7 0.0 0.0
05:44 10.1 7.2 82 1020.7 0.0 NE 0.7 0.0 0.0
05:45 10.1 7.2 82 1020.7 0.0 NE 0.7 0.0 0.0
05:46 10.1 7.2 82 1020.7 0.0 NE 0.0 0.0 0.0
05:47 10.1 7.2 82 1020.7 0.0 N 0.0 0.0 0.0
05:48 10.0 7.1 82 1020.6 0.0 NE 0.0 0.0 0.0
05:49 10.1 7.2 82 1020.7 0.0 N 0.0 0.0 0.0
05:50 10.0 7.1 82 1020.7 0.0 N 0.0 0.0 0.0
05:51 10.0 7.1 82 1020.7 0.0 NE 0.0 0.0 0.0
05:52 10.0 7.1 82 1020.7 0.0 NE 0.0 0.0 0.0
05:53 10.0 7.1 82 1020.6 0.0 N 0.0 0.0 0.0
05:54 10.0 7.1 82 1020.7 0.0 N 0.0 0.0 0.0
05:55 10.0 7.1 82 1020.7 0.0 NE 0.0 0.0 0.0
05:56 10.0 7.1 82 1020.7 0.0 NE 0.0 0.0 0.0
05:57 10.0 7.1 82 1020.6 0.7 N 0.7 0.0 0.0
05:58 10.0 7.1 82 1020.7 0.0 NE 0.7 0.0 0.0
06:00 10.0 7.1 82 1020.6 0.0 NE 0.7 0.0 0.0
06:01 10.0 7.1 82 1020.6 0.0 NE 0.7 0.0 0.0
06:02 10.0 7.1 82 1020.7 0.0 NE 0.7 0.0 0.0
06:03 10.0 7.1 82 1020.5 0.0 NE 0.7 0.0 0.0
06:04 10.0 7.1 82 1020.6 0.0 NE 0.7 0.0 0.0
06:05 10.0 7.1 82 1020.6 0.0 NW 0.7 0.0 0.0
06:06 10.0 7.1 82 1020.6 0.0 NE 0.7 0.0 0.0
06:07 10.0 7.1 82 1020.7 0.0 N 0.0 0.0 0.0
06:08 10.0 7.1 82 1020.6 0.0 N 0.0 0.0 0.0
06:09 10.0 7.1 82 1020.6 0.0 NE 0.0 0.0 0.0
06:10 10.0 7.1 82 1020.6 0.0 NE 0.0 0.0 0.0
06:11 10.0 7.1 82 1020.6 0.0 N 0.0 0.0 0.0
06:12 10.0 7.1 82 1020.6 0.0 N 0.0 0.0 0.0
06:13 10.0 7.1 82 1020.6 0.0 N 0.0 0.0 0.0
06:14 10.0 7.1 82 1020.6 0.0 N 0.0 0.0 0.0
06:15 10.0 7.1 82 1020.6 0.0 N 0.0 0.0 0.0
06:16 10.0 7.1 82 1020.7 0.0 N 0.0 0.0 0.0
06:17 10.0 7.1 82 1020.7 0.0 N 0.7 0.0 0.0
06:18 10.0 7.1 82 1020.7 0.0 N 0.7 0.0 0.0
06:19 10.0 7.1 82 1020.6 0.0 N 0.7 0.0 0.0
06:20 10.0 7.1 82 1020.5 0.0 N 0.7 0.0 0.0
06:21 10.0 7.1 82 1020.6 0.0 NW 0.7 0.0 0.0
06:23 10.0 7.1 82 1020.7 0.0 NE 0.7 0.0 0.0
06:24 10.0 7.1 82 1020.5 0.0 N 0.7 0.0 0.0
06:25 10.0 7.1 82 1020.6 0.0 NE 0.7 0.0 0.0
06:26 10.0 7.1 82 1020.6 0.0 NE 0.0 0.0 0.0
06:27 10.0 7.2 83 1020.7 0.0 N 0.0 0.0 0.0
06:29 10.0 7.2 83 1020.6 0.0 NE 0.0 0.0 0.0
06:30 10.0 7.1 82 1020.6 1.6 SE 1.6 0.0 0.0
06:31 10.0 7.2 83 1020.5 1.6 SE 1.6 0.0 0.0
06:32 10.0 7.1 82 1020.6 0.7 SE 1.6 0.0 0.0
06:34 10.0 7.2 83 1020.7 0.0 N 1.6 0.0 0.0
06:35 10.1 7.3 83 1020.7 0.0 N 1.6 0.0 0.0
06:36 10.1 7.3 83 1020.7 0.0 N 1.6 0.0 0.0
06:37 10.0 7.2 83 1020.6 0.0 NE 1.6 0.0 0.0
06:38 10.1 7.3 83 1020.6 0.0 NNE 1.6 0.0 0.0
06:39 10.1 7.3 83 1020.7 0.0 N 1.6 0.0 0.0
06:40 10.1 7.3 83 1020.6 1.6 NE 1.6 0.0 0.0
06:41 10.1 7.3 83 1020.7 2.2 NE 2.2 0.0 0.0
06:42 10.1 7.3 83 1020.6 0.7 NE 2.2 0.0 0.0
06:43 10.1 7.3 83 1020.7 0.0 N 2.2 0.0 0.0
06:44 10.1 7.3 83 1020.7 0.0 N 2.2 0.0 0.0
06:45 10.1 7.3 83 1020.5 0.0 N 2.2 0.0 0.0
06:46 10.1 7.3 83 1020.6 0.0 N 2.2 0.0 0.0
06:47 10.1 7.3 83 1020.8 0.0 N 2.2 0.0 0.0
06:48 10.2 7.4 83 1020.8 0.0 N 2.2 0.0 0.0
06:49 10.2 7.4 83 1020.7 0.0 N 2.2 0.0 0.0
06:50 10.2 7.4 83 1020.7 0.0 NNE 2.2 0.0 0.0
06:51 10.2 7.4 83 1020.8 0.0 N 2.2 0.0 0.0
06:52 10.2 7.4 83 1020.8 0.0 N 0.7 0.0 0.0
06:53 10.2 7.4 83 1020.8 0.0 N 0.0 0.0 0.0
06:54 10.2 7.4 83 1020.8 0.0 NE 0.0 0.0 0.0
06:55 10.2 7.4 83 1020.7 0.7 N 0.7 0.0 0.0
06:56 10.3 7.5 83 1020.8 0.0 N 0.7 0.0 0.0
06:57 10.2 7.4 83 1020.8 0.0 NW 0.7 0.0 0.0
06:58 10.3 7.5 83 1020.8 0.0 N 0.7 0.0 0.0
06:59 10.3 7.5 83 1020.9 0.0 N 0.7 0.0 0.0
07:00 10.2 7.4 83 1020.9 0.0 ENE 0.7 0.0 0.0
07:01 10.2 7.4 83 1020.8 0.0 ENE 0.7 0.0 0.0
07:02 10.3 7.5 83 1020.9 0.0 N 0.7 0.0 0.0
07:03 10.3 7.5 83 1020.8 0.0 N 0.7 0.0 0.0
07:04 10.3 7.5 83 1020.7 0.0 N 0.7 0.0 0.0
07:05 10.4 7.6 83 1020.8 0.0 E 0.0 0.0 0.0
07:06 10.4 7.6 83 1020.9 0.0 N 0.0 0.0 0.0
07:07 10.4 7.6 83 1021.0 0.0 N 0.0 0.0 0.0
07:08 10.4 7.8 84 1020.9 0.0 N 0.0 0.0 0.0
07:09 10.4 7.8 84 1021.0 0.0 N 0.0 0.0 0.0
07:10 10.4 7.8 84 1020.8 0.0 N 0.0 0.0 0.0
07:11 10.4 7.8 84 1021.0 0.0 N 0.0 0.0 0.0
07:12 10.5 7.9 84 1020.9 0.0 N 0.0 0.0 0.0
07:13 10.5 7.9 84 1021.0 0.0 N 0.0 0.0 0.0
07:14 10.5 7.9 84 1020.9 0.0 N 0.0 0.0 0.0
07:15 10.4 7.8 84 1021.0 0.0 N 0.0 0.0 0.0
07:16 10.5 7.9 84 1021.0 0.0 NW 0.0 0.0 0.0
07:17 10.5 7.9 84 1021.0 0.0 N 0.0 0.0 0.0
07:18 10.6 8.0 84 1021.0 0.0 N 0.0 0.0 0.0
07:19 10.6 8.0 84 1021.0 0.0 N 0.0 0.0 0.0
07:20 10.6 8.0 84 1021.1 0.0 N 0.0 0.0 0.0
07:21 10.6 8.0 84 1020.9 0.0 N 0.0 0.0 0.0
07:22 10.6 8.0 84 1021.0 0.0 NW 0.0 0.0 0.0
07:23 10.6 8.0 84 1021.0 0.0 N 0.0 0.0 0.0
07:24 10.7 8.1 84 1020.9 0.0 N 0.0 0.0 0.0
07:25 10.7 8.1 84 1020.9 0.0 N 0.0 0.0 0.0
07:26 10.7 8.1 84 1021.0 0.0 N 0.0 0.0 0.0
07:27 10.7 8.1 84 1021.0 0.0 N 0.0 0.0 0.0
07:28 10.7 8.1 84 1020.9 0.0 N 0.0 0.0 0.0
07:29 10.7 8.1 84 1021.0 0.0 N 0.0 0.0 0.0
07:30 10.7 8.1 84 1021.0 0.0 N 0.0 0.0 0.0
07:31 10.8 8.2 84 1020.9 0.0 NW 0.0 0.0 0.0
07:32 10.7 8.1 84 1021.1 0.0 N 0.0 0.0 0.0
07:33 10.8 8.2 84 1021.0 0.0 N 0.0 0.0 0.0
07:34 10.8 8.2 84 1021.0 0.0 N 0.0 0.0 0.0
07:35 10.9 8.3 84 1021.0 0.0 N 0.0 0.0 0.0
07:36 10.9 8.3 84 1021.0 0.0 N 0.0 0.0 0.0
07:37 10.9 8.3 84 1020.9 0.0 NE 0.0 0.0 0.0
07:38 10.9 8.3 84 1020.9 0.0 NE 0.0 0.0 0.0
07:39 10.9 8.3 84 1021.0 0.0 N 0.0 0.0 0.0
07:40 10.9 8.3 84 1021.0 0.0 NE 0.0 0.0 0.0
07:41 11.0 8.4 84 1020.9 0.0 N 0.0 0.0 0.0
07:42 11.0 8.4 84 1021.0 0.0 NE 0.0 0.0 0.0
07:43 11.0 8.4 84 1020.9 0.0 NE 0.0 0.0 0.0
07:44 11.0 8.4 84 1020.8 0.0 N 0.0 0.0 0.0
07:45 11.1 8.5 84 1021.0 0.0 NE 0.0 0.0 0.0
07:46 11.1 8.5 84 1020.9 0.0 NE 0.0 0.0 0.0
07:47 11.1 8.5 84 1021.0 0.0 N 0.0 0.0 0.0
07:48 11.1 8.3 83 1021.0 2.2 NE 2.2 0.0 0.0
07:49 11.1 8.3 83 1020.9 0.7 N 2.2 0.0 0.0
07:50 11.2 8.4 83 1020.9 0.0 NE 2.2 0.0 0.0
07:51 11.2 8.4 83 1021.1 0.0 N 2.2 0.0 0.0
07:52 11.2 8.4 83 1020.9 0.7 N 2.2 0.0 0.0
07:53 11.3 8.5 83 1021.0 0.0 NE 2.2 0.0 0.0
07:55 11.3 8.5 83 1020.9 0.7 NE 2.2 0.0 0.0
07:56 11.4 8.4 82 1021.0 2.2 NNE 2.2 0.0 0.0
07:57 11.4 8.4 82 1020.9 1.6 N 2.2 0.0 0.0
07:58 11.5 8.5 82 1020.9 0.0 N 2.2 0.0 0.0
07:59 11.5 8.5 82 1020.9 0.0 N 2.2 0.0 0.0
08:00 11.5 8.5 82 1021.0 0.0 NE 2.2 0.0 0.0
08:01 11.5 8.5 82 1020.9 0.0 NE 2.2 0.0 0.0
08:02 11.6 8.6 82 1021.0 2.2 N 3.1 0.0 0.0
08:03 11.6 8.6 82 1021.0 2.2 N 3.1 0.0 0.0
08:04 11.7 8.7 82 1021.0 0.7 N 3.1 0.0 0.0
08:05 11.7 8.6 81 1021.0 0.0 N 3.1 0.0 0.0
08:06 11.7 8.6 81 1020.8 0.0 N 3.1 0.0 0.0
08:07 11.7 8.6 81 1020.9 0.0 N 3.1 0.0 0.0
08:08 11.8 8.6 81 1020.9 2.2 NE 3.1 0.0 0.0
08:09 11.8 8.6 81 1020.9 0.7 N 3.1 0.0 0.0
08:10 11.8 8.5 80 1020.9 0.7 NE 3.1 0.0 0.0
08:11 11.8 8.5 80 1020.9 0.0 N 3.1 0.0 0.0
08:12 11.9 8.6 80 1020.9 0.0 NE 3.1 0.0 0.0
08:13 11.9 8.6 80 1021.0 0.0 N 2.2 0.0 0.0
08:14 11.9 8.6 80 1020.8 0.0 N 2.2 0.0 0.0
08:15 11.9 8.6 80 1021.0 0.0 N 2.2 0.0 0.0
08:16 11.9 8.4 79 1020.9 0.0 N 2.2 0.0 0.0
08:17 12.0 8.5 79 1021.0 0.0 N 2.2 0.0 0.0
08:18 12.0 8.5 79 1021.0 0.0 NE 0.7 0.0 0.0
08:19 12.0 8.5 79 1021.0 0.0 N 0.7 0.0 0.0
08:20 12.0 8.5 79 1021.0 0.0 N 0.0 0.0 0.0
08:21 12.0 8.5 79 1021.0 0.0 N 0.0 0.0 0.0
08:22 12.0 8.3 78 1021.0 0.0 N 0.0 0.0 0.0
08:23 12.0 8.3 78 1021.0 0.0 NW 0.0 0.0 0.0
08:24 12.0 8.3 78 1021.0 0.0 NW 0.0 0.0 0.0
08:25 12.0 8.3 78 1021.0 0.0 NW 0.0 0.0 0.0
08:26 12.0 8.3 78 1021.0 0.0 NW 0.0 0.0 0.0
08:27 12.0 8.1 77 1021.0 0.0 N 0.0 0.0 0.0
08:28 12.0 8.1 77 1020.9 0.0 N 0.0 0.0 0.0
08:29 12.0 8.1 77 1021.0 0.0 NW 0.0 0.0 0.0
08:30 12.0 8.1 77 1021.0 0.0 NW 0.0 0.0 0.0
08:31 12.0 8.1 77 1021.1 1.6 NW 1.6 0.0 0.0
08:32 12.0 8.1 77 1021.0 3.8 W 3.8 0.0 0.0
08:33 12.1 8.2 77 1021.0 3.8 N 3.8 0.0 0.0
08:34 12.0 8.1 77 1020.9 3.1 N 3.8 0.0 0.0
08:35 12.1 8.0 76 1021.0 2.2 NW 3.8 0.0 0.0
08:36 12.1 8.0 76 1021.0 1.6 SW 3.8 0.0 0.0
08:37 12.1 8.0 76 1021.0 3.1 N 3.8 0.0 0.0
08:38 12.1 8.0 76 1021.0 3.8 N 3.8 0.0 0.0
08:39 12.1 8.0 76 1021.0 3.8 N 3.8 0.0 0.0
08:40 12.2 8.1 76 1021.0 2.2 NW 3.8 0.0 0.0
08:41 12.2 8.1 76 1021.0 2.2 SE 3.8 0.0 0.0
08:42 12.2 8.1 76 1021.1 2.2 NW 3.8 0.0 0.0
08:43 12.2 8.1 76 1021.0 2.2 NW 3.8 0.0 0.0
08:44 12.2 7.9 75 1021.1 3.1 NW 3.8 0.0 0.0
08:45 12.2 7.9 75 1021.0 2.2 NE 3.8 0.0 0.0
08:46 12.2 7.9 75 1021.0 3.1 N 3.8 0.0 0.0
08:47 12.3 8.0 75 1021.1 1.6 N 3.8 0.0 0.0
08:48 12.3 8.0 75 1020.9 2.2 N 3.8 0.0 0.0
08:49 12.3 8.0 75 1020.9 3.1 N 3.8 0.0 0.0
08:51 12.4 7.9 74 1020.9 3.1 NW 3.8 0.0 0.0
08:52 12.4 7.9 74 1020.8 3.8 NE 3.8 0.0 0.0
08:53 12.5 8.0 74 1021.0 3.1 N 3.8 0.0 0.0
08:54 12.5 8.0 74 1021.0 1.6 N 3.8 0.0 0.0
08:55 12.5 8.0 74 1021.0 2.2 NW 3.8 0.0 0.0
08:56 12.6 8.1 74 1021.0 3.8 NW 3.8 0.0 0.0
08:57 12.6 8.1 74 1020.9 3.8 NW 3.8 0.0 0.0
08:58 12.7 8.0 73 1021.0 2.2 NE 3.8 0.0 0.0
08:59 12.7 8.0 73 1021.0 2.2 NE 3.8 0.0 0.0
09:00 12.8 8.1 73 1021.0 0.0 NE 3.8 0.0 0.0
09:01 12.8 8.1 73 1021.0 0.0 N 3.8 0.0 0.0
09:02 12.9 8.2 73 1021.0 0.0 NW 3.8 0.0 0.0
09:03 12.9 8.2 73 1021.1 4.5 NW 4.5 0.0 0.0
09:04 12.9 8.0 72 1021.0 4.5 N 4.5 0.0 0.0
09:05 13.0 8.1 72 1021.0 3.8 N 4.5 0.0 0.0
09:06 13.1 8.2 72 1021.0 3.8 NE 4.5 0.0 0.0
09:07 13.1 8.2 72 1021.0 1.6 NE 4.5 0.0 0.0
09:08 13.2 8.3 72 1021.0 5.4 NW 5.4 0.0 0.0
09:09 13.3 8.4 72 1021.0 4.5 N 5.4 0.0 0.0
09:10 13.3 8.4 72 1021.1 3.1 NE 5.4 0.0 0.0
09:11 13.4 8.5 72 1021.0 3.8 N 5.4 0.0 0.0
09:12 13.4 8.3 71 1021.0 4.5 NW 5.4 0.0 0.0
09:13 13.5 8.3 71 1021.0 2.2 NW 5.4 0.0 0.0
09:14 13.6 8.4 71 1020.8 3.1 N 5.4 0.0 0.0
09:15 13.6 8.2 70 1021.0 3.8 N 5.4 0.0 0.0
09:16 13.6 8.2 70 1021.0 3.8 NNE 5.4 0.0 0.0
09:17 13.8 8.4 70 1021.0 3.8 N 5.4 0.0 0.0
09:18 13.8 8.2 69 1020.9 5.4 E 5.4 0.0 0.0
09:20 14.1 8.3 68 1021.0 4.5 WNW 6.0 0.0 0.0
09:21 14.0 8.2 68 1021.0 3.8 NE 6.0 0.0 0.0
09:22 14.0 8.2 68 1021.0 5.4 N 6.0 0.0 0.0
09:23 14.1 8.3 68 1021.0 4.5 NE 6.0 0.0 0.0
09:24 14.1 8.1 67 1020.8 4.5 N 6.0 0.0 0.0
09:25 14.2 8.2 67 1020.9 3.1 NE 6.0 0.0 0.0
09:26 14.3 8.3 67 1020.9 3.1 NE 6.0 0.0 0.0
09:27 14.3 8.3 67 1020.9 2.2 NW 6.0 0.0 0.0
09:28 14.3 8.3 67 1020.9 2.2 NW 6.0 0.0 0.0
09:29 14.4 8.1 66 1021.0 4.5 W 6.0 0.0 0.0
09:30 14.4 8.1 66 1020.9 3.1 NW 5.4 0.0 0.0
09:31 14.5 8.2 66 1021.0 3.1 W 5.4 0.0 0.0
09:32 14.5 8.2 66 1021.0 2.2 N 5.4 0.0 0.0
09:33 14.5 8.2 66 1020.9 2.2 N 4.5 0.0 0.0
09:34 14.6 8.1 65 1021.0 1.6 N 4.5 0.0 0.0
09:35 14.6 8.1 65 1021.1 1.6 N 4.5 0.0 0.0
09:36 14.6 8.1 65 1020.9 2.2 N 4.5 0.0 0.0
09:37 14.7 8.2 65 1020.8 2.2 N 4.5 0.0 0.0
09:38 14.8 8.1 64 1020.8 2.2 N 4.5 0.0 0.0
09:40 14.9 8.2 64 1020.9 3.8 N 3.8 0.0 0.0
09:41 15.0 8.3 64 1020.9 4.5 N 4.5 0.0 0.0
09:42 15.0 8.3 64 1021.0 4.5 SW 4.5 0.0 0.0
09:43 15.0 8.0 63 1020.7 1.6 NE 4.5 0.0 0.0
09:44 15.1 8.1 63 1020.9 1.6 NE 4.5 0.0 0.0
09:45 15.1 8.1 63 1020.8 4.5 NE 4.5 0.0 0.0
09:46 15.2 8.2 63 1020.9 5.4 E 5.4 0.0 0.0
09:47 15.2 8.2 63 1020.9 5.4 E 5.4 0.0 0.0
09:48 15.2 8.2 63 1020.9 3.8 N 5.4 0.0 0.0
09:49 15.3 8.3 63 1020.9 2.2 N 5.4 0.0 0.0
09:50 15.4 8.4 63 1020.9 3.1 NE 5.4 0.0 0.0
09:51 15.4 8.4 63 1020.9 3.1 NE 5.4 0.0 0.0
09:52 15.5 8.3 62 1020.8 2.2 NE 5.4 0.0 0.0
09:53 15.5 8.3 62 1021.0 3.8 N 5.4 0.0 0.0
09:54 15.6 8.4 62 1020.9 4.5 N 5.4 0.0 0.0
09:55 15.6 8.4 62 1020.8 4.5 NW 5.4 0.0 0.0
09:56 15.7 8.2 61 1020.9 3.1 N 6.0 0.0 0.0
09:57 15.7 8.2 61 1021.0 3.8 N 6.0 0.0 0.0
09:58 15.7 8.0 60 1020.9 3.1 NE 6.0 0.0 0.0
10:00 15.8 8.1 60 1020.9 4.5 NE 6.9 0.0 0.0
10:01 15.8 8.1 60 1020.9 3.8 E 6.9 0.0 0.0
10:02 15.9 8.2 60 1020.9 3.1 N 6.9 0.0 0.0
10:03 15.9 7.9 59 1021.0 1.6 NW 6.9 0.0 0.0
10:04 16.0 8.0 59 1020.8 3.8 N 6.9 0.0 0.0
10:05 16.0 8.0 59 1020.8 3.8 N 6.9 0.0 0.0
10:06 16.0 8.0 59 1020.9 2.2 N 6.9 0.0 0.0
10:07 16.1 8.1 59 1020.9 0.7 N 6.9 0.0 0.0
10:08 16.1 7.8 58 1020.9 3.8 NW 6.9 0.0 0.0
10:09 16.1 7.8 58 1020.8 4.5 NNW 6.9 0.0 0.0
10:10 16.2 7.9 58 1020.9 5.4 NE 5.4 0.0 0.0
10:11 16.2 7.9 58 1021.0 5.4 NE 5.4 0.0 0.0
10:12 16.2 7.9 58 1020.7 3.8 N 5.4 0.0 0.0
10:13 16.3 7.8 57 1020.8 3.1 NW 5.4 0.0 0.0
10:14 16.3 7.8 57 1020.9 3.1 NW 5.4 0.0 0.0
10:15 16.3 7.5 56 1020.8 1.6 NE 5.4 0.0 0.0
10:16 16.4 7.6 56 1020.9 0.0 N 5.4 0.0 0.0
10:17 16.4 7.6 56 1020.8 2.2 N 5.4 0.0 0.0
10:18 16.4 7.6 56 1020.9 0.7 N 5.4 0.0 0.0
10:20 16.5 7.4 55 1020.7 3.8 NW 5.4 0.0 0.0
10:21 16.5 7.4 55 1020.7 3.8 N 3.8 0.0 0.0
10:22 16.5 7.2 54 1020.8 5.4 NW 5.4 0.0 0.0
10:23 16.6 7.3 54 1020.8 6.0 NW 6.0 0.0 0.0
10:24 16.6 7.3 54 1020.6 5.4 NE 6.0 0.0 0.0
10:25 16.6 7.3 54 1020.8 0.7 NE 6.0 0.0 0.0
10:26 16.6 7.0 53 1020.8 2.2 N 6.0 0.0 0.0
10:27 16.6 7.0 53 1020.8 3.8 E 6.0 0.0 0.0
10:28 16.7 7.1 53 1020.8 3.8 NW 6.0 0.0 0.0
10:29 16.7 6.5 51 1020.7 4.5 N 6.0 0.0 0.0
10:30 16.7 5.9 49 1020.8 3.1 NW 6.0 0.0 0.0
10:31 16.7 6.2 50 1020.5 0.0 NW 6.0 0.0 0.0
10:32 16.8 6.3 50 1020.7 3.8 NW 6.0 0.0 0.0
10:33 16.8 6.3 50 1020.6 2.2 NE 6.0 0.0 0.0
10:34 16.8 6.0 49 1020.7 1.6 N 5.4 0.0 0.0
10:35 16.9 6.1 49 1020.7 4.5 NE 4.5 0.0 0.0
10:36 16.9 6.1 49 1020.8 3.8 NE 4.5 0.0 0.0
10:37 17.0 6.2 49 1020.7 3.8 NE 4.5 0.0 0.0
10:41 17.1 6.0 48 1020.7 2.2 SE 4.5 0.0 0.0
10:42 17.0 5.3 46 1020.7 2.2 S 4.5 0.0 0.0
10:44 17.0 5.3 46 1020.8 3.8 S 4.5 0.0 0.0
10:45 17.0 5.9 48 1020.8 2.2 SE 4.5 0.0 0.0
10:46 17.0 5.9 48 1020.8 1.6 NW 3.8 0.0 0.0
10:47 17.0 5.9 48 1020.7 2.2 SE 3.8 0.0 0.0
10:48 17.0 5.3 46 1020.6 3.8 SE 3.8 0.0 0.0
10:49 17.0 5.0 45 1020.8 3.1 S 3.8 0.0 0.0
10:50 17.0 5.3 46 1020.6 3.1 S 3.8 0.0 0.0
10:51 17.0 5.6 47 1020.6 3.1 SE 3.8 0.0 0.0
10:52 17.1 6.3 49 1020.7 3.1 NE 3.8 0.0 0.0
10:53 17.1 6.0 48 1020.6 3.1 E 3.8 0.0 0.0
10:54 17.2 6.4 49 1020.7 0.7 S 3.8 0.0 0.0
10:55 17.2 6.1 48 1020.5 4.5 NE 4.5 0.0 0.0
10:56 17.2 6.4 49 1020.6 3.8 ENE 4.5 0.0 0.0
10:57 17.2 6.4 49 1020.7 5.4 N 5.4 0.0 0.0
10:58 17.3 6.5 49 1020.7 1.6 E 5.4 0.0 0.0
10:59 17.4 7.5 52 1020.6 0.7 N 5.4 0.0 0.0
11:00 17.5 7.8 53 1020.6 1.6 N 5.4 0.0 0.0
11:01 17.5 7.8 53 1020.6 1.6 N 5.4 0.0 0.0
11:03 17.8 7.0 49 1020.6 0.7 NW 5.4 0.0 0.0
11:04 17.9 7.6 51 1020.5 3.1 N 5.4 0.0 0.0
11:05 18.1 7.2 49 1020.6 1.6 NE 5.4 0.0 0.0
11:06 18.2 7.9 51 1020.6 1.6 NE 5.4 0.0 0.0
11:07 18.4 8.4 52 1020.5 3.1 NNE 3.1 0.0 0.0
11:08 18.5 7.9 50 1020.6 1.6 W 3.1 0.0 0.0
11:09 18.7 7.5 48 1020.5 3.1 NE 3.1 0.0 0.0
11:10 18.7 7.8 49 1020.5 2.2 NNE 3.1 0.0 0.0
11:11 18.7 7.8 49 1020.5 2.2 NNE 3.1 0.0 0.0
11:12 18.7 6.5 45 1020.6 4.5 N 4.5 0.0 0.0
11:13 18.7 6.9 46 1020.5 6.0 SE 6.0 0.0 0.0
11:14 18.7 6.9 46 1020.6 6.0 N 6.0 0.0 0.0
11:15 18.6 6.8 46 1020.5 5.4 SE 6.0 0.0 0.0
11:16 18.5 7.0 47 1020.6 3.1 E 6.0 0.0 0.0
11:17 18.6 7.4 48 1020.5 2.2 SE 6.0 0.0 0.0
11:18 18.6 7.1 47 1020.6 4.5 NW 6.0 0.0 0.0
11:19 18.9 7.4 47 1020.6 3.1 NNE 6.0 0.0 0.0
11:20 18.9 6.4 44 1020.6 3.8 SW 6.0 0.0 0.0
11:21 18.9 6.7 45 1020.6 1.6 NW 6.0 0.0 0.0
11:23 19.0 6.5 44 1020.5 1.6 SE 6.0 0.0 0.0
11:24 19.1 7.5 47 1020.5 1.6 E 5.4 0.0 0.0
11:25 19.2 7.0 45 1020.5 1.6 N 5.4 0.0 0.0
11:26 19.3 7.4 46 1020.5 3.1 S 4.5 0.0 0.0
11:27 19.4 6.8 44 1020.5 3.8 N 4.5 0.0 0.0
11:28 19.5 6.9 44 1020.6 2.2 E 3.8 0.0 0.0
11:29 19.6 6.3 42 1020.6 2.2 SE 4.5 0.0 0.0
11:30 19.6 6.3 42 1020.6 2.2 SE 4.5 0.0 0.0
11:31 19.6 6.3 42 1020.6 5.4 SE 5.4 0.0 0.0
11:32 19.5 5.9 41 1020.6 5.4 S 5.4 0.0 0.0
11:33 19.4 5.1 39 1020.5 2.2 NE 5.4 0.0 0.0
11:34 19.4 5.5 40 1020.6 4.5 WNW 5.4 0.0 0.0
11:35 19.3 5.4 40 1020.7 1.6 N 5.4 0.0 0.0
11:36 19.3 5.0 39 1020.6 2.2 ENE 5.4 0.0 0.0
11:37 19.3 5.0 39 1020.8 2.2 SE 5.4 0.0 0.0
11:38 19.2 5.3 40 1020.6 3.1 NE 5.4 0.0 0.0
11:39 19.4 6.2 42 1020.6 3.1 N 5.4 0.0 0.0
11:40 19.5 6.3 42 1020.6 7.6 SE 7.6 0.0 0.0
11:42 19.4 4.3 37 1020.6 3.1 SW 7.6 0.0 0.0
11:43 19.4 4.7 38 1020.5 1.6 NW 7.6 0.0 0.0
11:44 19.3 5.0 39 1020.5 3.8 N 7.6 0.0 0.0
11:45 19.3 5.7 41 1020.5 5.4 SE 7.6 0.0 0.0
11:46 19.4 5.8 41 1020.5 3.1 SE 7.6 0.0 0.0
11:47 19.4 5.8 41 1020.6 3.1 E 7.6 0.0 0.0
11:48 19.5 6.3 42 1020.5 6.0 E 7.6 0.0 0.0
11:49 19.6 6.3 42 1020.6 6.0 SE 7.6 0.0 0.0
11:50 19.7 5.7 40 1020.5 2.2 N 7.6 0.0 0.0
11:51 19.7 6.1 41 1020.5 2.2 NE 7.6 0.0 0.0
11:52 19.8 5.8 40 1020.5 7.6 S 7.6 0.0 0.0
11:53 19.8 6.2 41 1020.7 6.0 SE 7.6 0.0 0.0
11:54 19.8 5.5 39 1020.6 5.4 SE 7.6 0.0 0.0
11:55 19.7 5.0 38 1020.6 5.4 SE 7.6 0.0 0.0
11:56 19.6 4.5 37 1020.5 2.2 NW 7.6 0.0 0.0
11:57 19.6 4.1 36 1020.5 0.0 NW 7.6 0.0 0.0
11:58 19.4 4.3 37 1020.5 3.1 S 7.6 0.0 0.0
11:59 19.4 5.1 39 1020.6 2.2 S 7.6 0.0 0.0
12:01 19.6 6.7 43 1020.4 4.5 NE 7.6 0.0 0.0
12:02 19.7 6.1 41 1020.6 3.1 NW 6.0 0.0 0.0
12:03 19.8 5.1 38 1020.4 6.9 SE 6.9 0.0 0.0
12:04 19.7 5.0 38 1020.4 5.4 SE 6.9 0.0 0.0
12:05 19.6 5.3 39 1020.5 9.8 SE 9.8 0.0 0.0
12:06 19.6 5.3 39 1020.5 8.3 S 9.8 0.0 0.0
12:07 19.5 5.6 40 1020.4 3.8 S 9.8 0.0 0.0
12:08 19.5 4.8 38 1020.5 3.1 SE 9.8 0.0 0.0
12:09 19.6 5.6 40 1020.5 6.9 SE 9.8 0.0 0.0
12:10 19.6 6.0 41 1020.5 4.5 E 9.8 0.0 0.0
12:11 19.6 5.6 40 1020.4 6.9 SE 9.8 0.0 0.0
12:12 19.6 6.0 41 1020.5 3.8 S 9.8 0.0 0.0
12:13 19.6 4.9 38 1020.4 3.8 S 9.8 0.0 0.0
12:14 19.6 6.0 41 1020.4 2.2 SE 9.8 0.0 0.0
12:15 19.5 5.9 41 1020.5 4.5 SE 9.8 0.0 0.0
12:16 19.5 5.9 41 1020.5 4.5 SE 9.8 0.0 0.0
12:17 19.5 5.6 40 1020.5 3.8 SE 6.9 0.0 0.0
12:18 19.5 4.8 38 1020.5 4.5 SE 6.9 0.0 0.0
12:20 19.6 6.7 43 1020.4 2.2 SE 6.9 0.0 0.0
12:21 19.7 6.1 41 1020.4 3.1 S 6.9 0.0 0.0
12:22 19.8 6.5 42 1020.5 3.1 E 6.9 0.0 0.0
12:23 19.8 5.1 38 1020.4 5.4 SE 6.9 0.0 0.0
12:24 19.8 5.1 38 1020.5 3.1 SE 6.9 0.0 0.0
12:25 19.8 6.2 41 1020.4 2.2 N 6.9 0.0 0.0
12:26 19.9 6.6 42 1020.5 2.2 NW 6.0 0.0 0.0
12:27 20.0 6.0 40 1020.4 0.0 W 5.4 0.0 0.0
12:28 20.0 6.4 41 1020.5 2.2 N 5.4 0.0 0.0
12:29 20.1 6.8 42 1020.6 4.5 E 5.4 0.0 0.0
12:30 20.3 7.0 42 1020.4 3.8 SE 5.4 0.0 0.0
12:31 20.3 6.6 41 1020.5 5.4 SE 5.4 0.0 0.0
12:32 20.5 6.8 41 1020.5 3.1 E 5.4 0.0 0.0
12:33 20.5 6.4 40 1020.4 0.0 NW 5.4 0.0 0.0
12:34 20.6 6.5 40 1020.5 0.0 SE 5.4 0.0 0.0
12:35 20.5 5.7 38 1020.5 6.0 SE 6.0 0.0 0.0
12:36 20.5 5.7 38 1020.5 6.0 SE 6.0 0.0 0.0
12:37 20.1 5.0 37 1020.2 3.1 W 6.0 0.0 0.0
12:39 19.9 5.5 39 1020.3 6.0 N 6.0 0.0 0.0
12:40 19.7 5.4 39 1020.5 2.2 SW 6.0 0.0 0.0
12:41 19.6 5.6 40 1020.5 3.8 NW 6.0 0.0 0.0
12:42 19.6 5.3 39 1020.4 3.8 WSW 6.0 0.0 0.0
12:43 19.5 5.6 40 1020.4 4.5 SW 6.0 0.0 0.0
12:44 19.3 5.0 39 1020.4 2.2 NW 6.0 0.0 0.0
12:45 19.2 6.0 42 1020.4 6.0 S 6.0 0.0 0.0
12:46 19.2 6.0 42 1020.4 6.0 S 6.0 0.0 0.0
12:47 19.1 5.9 42 1020.3 4.5 S 6.0 0.0 0.0
12:48 19.1 5.9 42 1020.4 2.2 N 6.0 0.0 0.0
12:49 19.1 6.9 45 1020.5 3.8 W 6.0 0.0 0.0
12:50 19.3 7.4 46 1020.4 5.4 SW 6.0 0.0 0.0
12:51 19.4 7.8 47 1020.5 4.5 SW 6.0 0.0 0.0
12:52 19.5 6.3 42 1020.4 4.5 SW 6.0 0.0 0.0
12:53 19.5 6.9 44 1020.5 5.4 W 6.0 0.0 0.0
12:54 19.5 6.9 44 1020.4 6.9 W 6.9 0.0 0.0
12:55 19.4 6.5 43 1020.6 5.4 S 7.6 0.0 0.0
12:56 19.3 6.4 43 1020.5 5.4 S 7.6 0.0 0.0
12:57 19.2 6.0 42 1020.4 3.1 SW 7.6 0.0 0.0
12:59 19.0 6.1 43 1020.5 3.1 S 7.6 0.0 0.0
13:00 18.9 6.4 44 1020.4 3.1 S 7.6 0.0 0.0
13:01 18.8 6.0 43 1020.5 5.4 W 7.6 0.0 0.0
13:02 18.7 5.5 42 1020.5 5.4 SE 7.6 0.0 0.0
13:03 18.7 5.9 43 1020.4 6.9 SE 7.6 0.0 0.0
13:04 18.7 5.5 42 1020.5 8.3 SE 8.3 0.0 0.0
13:05 18.7 5.5 42 1020.5 8.3 SE 8.3 0.0 0.0
13:06 18.7 5.2 41 1020.3 3.8 SW 8.3 0.0 0.0
13:07 18.8 6.0 43 1020.5 3.1 S 8.3 0.0 0.0
13:08 18.8 5.6 42 1020.5 2.2 S 8.3 0.0 0.0
13:09 18.8 5.6 42 1020.4 5.4 SE 8.3 0.0 0.0
13:10 18.8 5.3 41 1020.4 7.6 SE 8.3 0.0 0.0
13:11 18.8 4.9 40 1020.5 4.5 S 8.3 0.0 0.0
13:12 18.7 5.5 42 1020.5 5.4 S 8.3 0.0 0.0
13:13 18.7 5.5 42 1020.4 8.3 S 8.3 0.0 0.0
13:14 18.7 5.5 42 1020.4 8.3 S 8.3 0.0 0.0
13:15 18.5 5.4 42 1020.5 3.8 SW 9.2 0.0 0.0
13:16 18.5 5.4 42 1020.4 2.2 W 9.2 0.0 0.0
13:17 18.4 5.3 42 1020.4 2.2 W 9.2 0.0 0.0
13:18 18.3 5.2 42 1020.5 3.1 SW 9.2 0.0 0.0
13:19 18.3 5.2 42 1020.4 2.2 SSE 9.2 0.0 0.0
13:21 18.2 5.8 44 1020.6 8.3 S 9.2 0.0 0.0
13:22 18.2 5.4 43 1020.5 6.0 SE 9.2 0.0 0.0
13:23 18.1 5.7 44 1020.4 4.5 S 9.2 0.0 0.0
13:24 18.1 6.0 45 1020.5 6.0 SW 9.2 0.0 0.0
13:25 18.1 6.0 45 1020.5 6.0 SW 8.3 0.0 0.0
13:26 18.0 5.9 45 1020.5 5.4 WSW 8.3 0.0 0.0
13:27 18.0 5.9 45 1020.5 8.3 SW 8.3 0.0 0.0
13:28 17.9 5.8 45 1020.6 4.5 SW 8.3 0.0 0.0
13:29 17.9 5.8 45 1020.6 3.8 S 8.3 0.0 0.0
13:30 17.9 6.1 46 1020.5 5.4 SSW 8.3 0.0 0.0
13:31 17.8 6.0 46 1020.5 4.5 SW 8.3 0.0 0.0
13:32 17.8 6.0 46 1020.5 4.5 S 8.3 0.0 0.0
13:33 17.8 6.3 47 1020.4 3.8 SSW 8.3 0.0 0.0
13:34 17.8 6.3 47 1020.5 6.0 SW 8.3 0.0 0.0
13:35 17.8 6.0 46 1020.4 2.2 S 8.3 0.0 0.0
13:36 17.7 6.3 47 1020.5 3.1 W 8.3 0.0 0.0
13:37 17.7 6.3 47 1020.4 2.2 NW 8.3 0.0 0.0
13:38 17.7 6.3 47 1020.4 0.0 N 6.0 0.0 0.0
13:40 17.8 6.7 48 1020.4 6.0 S 6.0 0.0 0.0
13:41 17.9 7.0 49 1020.5 4.5 N 6.0 0.0 0.0
13:42 18.1 7.2 49 1020.4 2.2 N 6.0 0.0 0.0
13:43 18.3 7.4 49 1020.4 4.5 S 6.0 0.0 0.0
13:44 18.6 6.8 46 1020.4 7.6 SE 7.6 0.0 0.0
13:45 18.8 6.9 46 1020.3 6.9 S 7.6 0.0 0.0
13:46 18.8 6.9 46 1020.3 6.9 S 7.6 0.0 0.0
13:47 19.1 7.2 46 1020.2 6.9 SW 9.2 0.0 0.0
13:48 19.2 8.2 49 1020.3 6.9 SE 9.2 0.0 0.0
13:49 19.3 7.1 45 1020.4 7.6 SE 9.2 0.0 0.0
13:50 19.4 7.2 45 1020.4 6.9 S 9.2 0.0 0.0
13:51 19.6 7.7 46 1020.3 9.2 S 9.2 0.0 0.0
13:52 19.7 7.4 45 1020.2 9.2 SE 9.2 0.0 0.0
13:53 19.7 7.4 45 1020.3 9.2 S 9.2 0.0 0.0
13:54 19.8 7.2 44 1020.2 6.0 SE 9.2 0.0 0.0
13:55 19.9 7.3 44 1020.2 8.3 SE 9.2 0.0 0.0
13:56 19.9 7.0 43 1020.2 8.3 SE 9.2 0.0 0.0
13:57 19.8 6.9 43 1020.3 8.3 SW 9.2 0.0 0.0
13:58 19.8 6.9 43 1020.2 6.9 SE 9.2 0.0 0.0
13:59 19.7 6.8 43 1020.3 6.0 E 9.2 0.0 0.0
14:01 19.4 6.8 44 1020.3 9.2 S 9.2 0.0 0.0
14:02 19.3 7.1 45 1020.2 6.0 SE 9.2 0.0 0.0
14:03 19.2 7.0 45 1020.3 9.8 SW 9.8 0.0 0.0
14:04 19.0 7.4 47 1020.2 6.0 SW 9.8 0.0 0.0
14:05 19.0 8.1 49 1020.3 6.9 S 9.8 0.0 0.0
14:06 19.0 7.1 46 1020.2 6.9 SW 9.8 0.0 0.0
14:07 18.9 7.0 46 1020.1 6.0 S 9.8 0.0 0.0
14:08 18.9 6.7 45 1020.2 8.3 S 9.8 0.0 0.0
14:09 18.8 6.3 44 1020.0 10.7 S 10.7 0.0 0.0
14:10 18.8 5.3 41 1020.2 10.7 S 10.7 0.0 0.0
14:11 18.8 5.3 41 1020.2 8.3 SSE 10.7 0.0 0.0
14:12 18.9 5.4 41 1020.1 8.3 SW 10.7 0.0 0.0
14:13 18.9 5.4 41 1020.2 9.8 SW 10.7 0.0 0.0
14:14 19.0 4.4 38 1020.1 8.3 SW 10.7 0.0 0.0
14:15 19.1 5.9 42 1020.1 6.0 S 10.7 0.0 0.0
14:16 19.1 5.9 42 1020.0 10.7 SW 10.7 0.0 0.0
14:17 19.2 7.3 46 1020.1 8.3 S 10.7 0.0 0.0
14:18 19.4 6.8 44 1020.2 8.3 SE 10.7 0.0 0.0
14:19 19.4 6.5 43 1020.2 9.8 E 10.7 0.0 0.0
14:21 19.4 6.5 43 1020.2 8.3 SE 10.7 0.0 0.0
14:22 19.3 6.4 43 1020.0 9.2 S 10.7 0.0 0.0
14:23 19.2 6.7 44 1020.2 6.0 S 10.7 0.0 0.0
14:24 19.3 7.1 45 1020.2 4.5 N 10.7 0.0 0.0
14:25 19.3 7.1 45 1020.1 5.4 NE 10.7 0.0 0.0
14:26 19.3 7.1 45 1020.1 5.4 NE 10.7 0.0 0.0
14:27 19.4 7.5 46 1020.1 2.2 NW 9.8 0.0 0.0
14:28 19.5 7.6 46 1020.1 2.2 N 9.8 0.0 0.0
14:29 19.5 7.3 45 1020.0 6.9 S 9.8 0.0 0.0
14:30 19.5 7.3 45 1020.1 7.6 SE 9.2 0.0 0.0
14:31 19.5 6.9 44 1020.1 7.6 N 9.2 0.0 0.0
14:32 19.5 6.6 43 1020.0 4.5 NW 9.2 0.0 0.0
14:33 19.5 6.3 42 1020.0 6.9 S 7.6 0.0 0.0
14:34 19.5 6.9 44 1020.1 3.8 SE 7.6 0.0 0.0
14:35 19.6 7.4 45 1020.2 5.4 S 7.6 0.0 0.0
14:36 19.6 7.4 45 1020.0 7.6 SW 7.6 0.0 0.0
14:37 19.6 7.4 45 1020.0 12.1 S 12.1 0.0 0.0
14:38 19.7 8.1 47 1020.1 6.9 SE 12.1 0.0 0.0
14:40 19.8 8.8 49 1020.0 3.8 S 12.1 0.0 0.0
14:41 20.0 8.4 47 1020.1 3.1 S 12.1 0.0 0.0
14:42 20.1 8.1 46 1020.0 9.2 S 12.1 0.0 0.0
14:43 20.1 7.5 44 1020.0 10.7 SE 12.1 0.0 0.0
14:44 20.1 7.5 44 1020.0 6.9 S 12.1 0.0 0.0
14:45 20.1 7.5 44 1020.0 6.9 SE 12.1 0.0 0.0
14:46 20.1 7.8 45 1020.0 7.6 SE 12.1 0.0 0.0
14:47 20.0 7.1 43 1020.1 5.4 S 12.1 0.0 0.0
14:48 20.0 7.7 45 1020.1 6.9 S 10.7 0.0 0.0
14:49 19.9 6.6 42 1020.1 5.4 SE 10.7 0.0 0.0
14:50 19.9 6.6 42 1020.0 4.5 E 10.7 0.0 0.0
14:51 20.0 8.0 46 1019.8 3.1 NW 10.7 0.0 0.0
14:52 20.1 7.8 45 1019.9 3.8 SE 10.7 0.0 0.0
14:53 20.2 8.2 46 1020.0 9.2 SE 10.7 0.0 0.0
14:54 20.2 5.8 39 1019.9 8.3 S 9.2 0.0 0.0
14:55 20.2 4.7 36 1019.8 9.2 S 9.2 0.0 0.0
14:56 20.2 3.8 34 1020.0 9.2 SE 9.2 0.0 0.0
14:57 20.1 3.8 34 1019.8 7.6 SE 9.2 0.0 0.0
14:58 20.1 2.5 31 1020.0 7.6 S 9.2 0.0 0.0
14:59 20.0 2.8 32 1020.0 4.5 SSE 9.2 0.0 0.0
15:01 19.9 3.2 33 1020.0 6.9 SE 9.2 0.0 0.0
15:02 19.8 3.1 33 1019.9 8.3 SE 9.2 0.0 0.0
15:03 19.8 2.6 32 1019.9 6.0 SW 9.2 0.0 0.0
15:04 19.8 3.1 33 1020.0 4.5 SE 9.2 0.0 0.0
15:05 19.8 3.9 35 1020.0 6.0 S 9.2 0.0 0.0
15:06 19.8 3.9 35 1020.0 6.0 S 9.2 0.0 0.0
15:07 19.8 2.2 31 1019.9 4.5 SE 8.3 0.0 0.0
15:08 19.7 2.1 31 1019.8 9.8 SW 9.8 0.0 0.0
15:09 19.7 4.6 37 1020.0 6.9 S 9.8 0.0 0.0
15:10 19.7 4.6 37 1020.0 6.9 S 9.8 0.0 0.0
15:11 19.7 4.2 36 1020.0 7.6 S 9.8 0.0 0.0
15:12 19.8 3.5 34 1019.9 7.6 S 9.8 0.0 0.0
15:13 19.7 2.1 31 1020.0 9.2 SW 9.8 0.0 0.0
15:14 19.6 2.9 33 1020.0 6.9 S 9.8 0.0 0.0
15:15 19.6 2.0 31 1019.9 4.5 SW 9.8 0.0 0.0
15:16 19.6 2.0 31 1019.9 4.5 SW 9.8 0.0 0.0
15:17 19.5 3.2 34 1020.0 8.3 S 9.8 0.0 0.0
15:18 19.5 4.4 37 1019.9 8.3 S 9.8 0.0 0.0
15:19 19.5 3.6 35 1019.9 11.4 S 11.4 0.0 0.0
15:20 19.5 2.8 33 1020.0 9.8 S 11.4 0.0 0.0
15:21 19.4 2.3 32 1019.9 7.6 SE 11.4 0.0 0.0
15:22 19.3 1.8 31 1019.9 8.3 S 11.4 0.0 0.0
15:24 19.3 3.5 35 1020.0 4.5 S 11.4 0.0 0.0
15:25 19.4 4.3 37 1019.8 6.0 S 11.4 0.0 0.0
15:26 19.5 4.8 38 1019.8 6.0 SE 11.4 0.0 0.0
15:27 19.6 5.3 39 1019.9 3.8 S 11.4 0.0 0.0
15:28 19.6 4.5 37 1019.8 6.0 S 11.4 0.0 0.0
15:29 19.7 3.8 35 1019.9 6.0 S 11.4 0.0 0.0
15:30 19.8 3.9 35 1019.8 9.2 S 9.8 0.0 0.0
15:31 19.8 3.5 34 1019.9 6.9 ESE 9.2 0.0 0.0
15:32 19.8 4.3 36 1019.8 4.5 S 9.2 0.0 0.0
15:33 19.7 3.8 35 1019.9 5.4 S 9.2 0.0 0.0
15:34 19.7 3.0 33 1019.9 8.3 SE 9.2 0.0 0.0
15:35 19.6 2.9 33 1019.9 6.9 SE 9.2 0.0 0.0
15:36 19.6 2.9 33 1019.9 6.9 SE 9.2 0.0 0.0
15:37 19.6 3.7 35 1019.8 7.6 SE 9.2 0.0 0.0
15:38 19.7 3.4 34 1019.9 8.3 S 9.2 0.0 0.0
15:39 19.6 4.1 36 1019.9 9.2 S 9.2 0.0 0.0
15:40 19.7 4.2 36 1019.9 6.0 SW 9.2 0.0 0.0
15:41 19.7 4.2 36 1019.9 8.3 S 9.2 0.0 0.0
15:42 19.7 3.4 34 1019.8 8.3 S 9.2 0.0 0.0
15:43 19.7 3.0 33 1020.0 6.9 SW 9.2 0.0 0.0
15:44 19.6 3.3 34 1019.8 5.4 SW 9.2 0.0 0.0
15:45 19.6 4.1 36 1019.8 2.2 W 9.2 0.0 0.0
15:46 19.7 4.6 37 1019.8 0.0 SW 9.2 0.0 0.0
15:47 19.7 3.8 35 1019.9 9.2 S 9.2 0.0 0.0
15:48 19.7 3.4 34 1019.9 8.3 S 9.8 0.0 0.0
15:49 19.6 4.1 36 1019.8 5.4 S 9.8 0.0 0.0
15:50 19.6 3.7 35 1019.8 8.3 SE 9.8 0.0 0.0
15:51 19.6 3.3 34 1019.8 6.9 SW 9.8 0.0 0.0
15:52 19.5 2.8 33 1019.7 8.3 SE 9.8 0.0 0.0
15:53 19.4 3.1 34 1019.8 7.6 SW 9.8 0.0 0.0
15:55 19.4 3.1 34 1019.8 4.5 S 9.8 0.0 0.0
15:56 19.4 2.7 33 1019.8 9.2 S 9.8 0.0 0.0
15:57 19.4 3.1 34 1019.9 6.9 SE 9.8 0.0 0.0
15:58 19.4 3.1 34 1019.8 8.3 S 9.2 0.0 0.0
15:59 19.4 2.7 33 1019.8 6.9 SE 9.2 0.0 0.0
16:00 19.4 2.7 33 1019.8 6.0 S 9.2 0.0 0.0
16:01 19.4 2.7 33 1019.8 6.0 S 9.2 0.0 0.0
16:02 19.3 3.5 35 1019.8 7.6 SW 9.2 0.0 0.0
16:03 19.3 3.5 35 1019.7 4.5 SW 9.2 0.0 0.0
16:04 19.3 4.3 37 1019.7 5.4 SW 9.2 0.0 0.0
16:05 19.3 4.3 37 1019.7 12.1 S 12.1 0.0 0.0
16:06 19.4 5.1 39 1019.8 9.8 SW 12.1 0.0 0.0
16:07 19.4 4.0 36 1019.7 6.9 SE 12.1 0.0 0.0
16:08 19.4 3.1 34 1019.7 6.9 S 12.1 0.0 0.0
16:10 19.5 1.9 31 1019.7 5.4 S 12.1 0.0 0.0
16:11 19.4 2.7 33 1019.7 1.6 SE 12.1 0.0 0.0
16:12 19.5 2.8 33 1019.8 8.3 SE 12.1 0.0 0.0
16:13 19.5 2.8 33 1019.7 4.5 SE 12.1 0.0 0.0
16:14 19.5 3.6 35 1019.6 6.9 SSE 12.1 0.0 0.0
16:15 19.6 3.7 35 1019.7 6.9 SE 9.8 0.0 0.0
16:16 19.6 3.3 34 1019.7 6.0 S 8.3 0.0 0.0
16:17 19.6 3.3 34 1019.7 6.0 SE 8.3 0.0 0.0
16:19 19.6 3.7 35 1019.5 7.6 SSW 8.3 0.0 0.0
16:20 19.6 3.7 35 1019.5 6.9 SW 8.3 0.0 0.0
16:21 19.5 3.6 35 1019.6 10.7 S 10.7 0.0 0.0
16:22 19.5 4.0 36 1019.7 7.6 SE 10.7 0.0 0.0
16:23 19.5 3.2 34 1019.6 6.0 SE 10.7 0.0 0.0
16:24 19.5 3.6 35 1019.5 4.5 SE 10.7 0.0 0.0
16:25 19.5 4.8 38 1019.5 5.4 S 10.7 0.0 0.0
16:26 19.5 4.8 38 1019.5 4.5 S 10.7 0.0 0.0
16:27 19.6 5.6 40 1019.5 7.6 SSW 10.7 0.0 0.0
16:28 19.6 6.0 41 1019.6 8.3 S 10.7 0.0 0.0
16:29 19.6 5.3 39 1019.6 5.4 SW 10.7 0.0 0.0
16:30 19.6 5.3 39 1019.5 4.5 SW 10.7 0.0 0.0
16:31 19.6 4.5 37 1019.5 6.0 SW 10.7 0.0 0.0
16:32 19.6 5.6 40 1019.7 6.9 S 8.3 0.0 0.0
16:33 19.6 5.3 39 1019.5 5.4 S 8.3 0.0 0.0
16:34 19.6 4.9 38 1019.5 9.2 S 9.2 0.0 0.0
16:35 19.5 4.4 37 1019.5 6.0 S 9.2 0.0 0.0
16:36 19.5 4.8 38 1019.6 5.4 S 9.2 0.0 0.0
16:37 19.5 5.2 39 1019.6 3.1 SE 9.2 0.0 0.0
16:38 19.5 5.2 39 1019.7 4.5 SW 9.2 0.0 0.0
16:39 19.5 5.6 40 1019.5 6.0 S 9.2 0.0 0.0
16:41 19.5 5.2 39 1019.6 7.6 SE 9.2 0.0 0.0
16:42 19.5 5.6 40 1019.6 6.9 S 9.2 0.0 0.0
16:43 19.5 5.2 39 1019.5 7.6 S 9.2 0.0 0.0
16:44 19.4 4.7 38 1019.6 7.6 S 9.2 0.0 0.0
16:45 19.4 5.1 39 1019.6 6.9 SSE 9.2 0.0 0.0
16:46 19.4 5.1 39 1019.6 6.9 SSE 9.2 0.0 0.0
16:47 19.3 4.6 38 1019.6 8.3 S 9.2 0.0 0.0
16:48 19.4 5.1 39 1019.6 7.6 SSE 9.2 0.0 0.0
16:49 19.4 5.1 39 1019.6 6.0 S 9.2 0.0 0.0
16:50 19.4 5.1 39 1019.6 5.4 SE 9.2 0.0 0.0
16:51 19.4 5.1 39 1019.6 9.2 S 9.2 0.0 0.0
16:52 19.3 6.1 42 1019.7 5.4 S 9.2 0.0 0.0
16:53 19.4 5.5 40 1019.6 7.6 S 9.2 0.0 0.0
16:54 19.4 6.2 42 1019.5 6.9 SW 9.2 0.0 0.0
16:55 19.4 5.5 40 1019.5 6.9 S 9.2 0.0 0.0
16:56 19.4 4.7 38 1019.6 6.0 SE 9.2 0.0 0.0
16:57 19.4 5.1 39 1019.6 4.5 S 9.2 0.0 0.0
16:58 19.3 5.0 39 1019.5 3.8 S 9.2 0.0 0.0
16:59 19.3 5.4 40 1019.6 2.2 S 9.2 0.0 0.0
17:00 19.3 4.6 38 1019.4 6.9 S 9.2 0.0 0.0
17:01 19.3 4.3 37 1019.6 3.1 S 8.3 0.0 0.0
17:02 19.2 5.3 40 1019.7 5.4 SSE 8.3 0.0 0.0
17:03 19.2 4.9 39 1019.4 7.6 SW 8.3 0.0 0.0
17:04 19.0 5.5 41 1019.5 7.6 SW 8.3 0.0 0.0
17:05 19.0 5.5 41 1019.5 6.9 S 7.6 0.0 0.0
17:06 18.9 4.7 39 1019.6 6.0 S 7.6 0.0 0.0
17:07 18.8 4.9 40 1019.5 4.5 S 7.6 0.0 0.0
17:08 18.6 5.1 41 1019.5 6.0 SW 7.6 0.0 0.0
17:09 18.6 5.4 42 1019.5 6.0 WSW 7.6 0.0 0.0
17:10 18.6 5.4 42 1019.5 6.9 S 7.6 0.0 0.0
17:11 18.5 5.4 42 1019.5 6.9 SW 7.6 0.0 0.0
17:12 18.4 5.3 42 1019.6 8.3 SW 8.3 0.0 0.0
17:13 18.4 5.6 43 1019.5 6.0 SE 8.3 0.0 0.0
17:15 18.3 5.5 43 1019.4 6.0 W 8.3 0.0 0.0
17:16 18.2 5.1 42 1019.5 6.9 S 8.3 0.0 0.0
17:17 18.2 5.4 43 1019.4 6.9 S 8.3 0.0 0.0
17:18 18.2 5.4 43 1019.5 9.2 SW 9.2 0.0 0.0
17:19 18.1 5.7 44 1019.4 6.0 SW 9.2 0.0 0.0
17:20 18.1 5.7 44 1019.4 6.0 S 9.2 0.0 0.0
17:21 18.1 5.7 44 1019.4 6.0 SSW 9.2 0.0 0.0
17:22 18.1 5.7 44 1019.3 5.4 W 9.2 0.0 0.0
17:23 18.1 6.0 45 1019.5 9.2 SW 9.2 0.0 0.0
17:24 18.2 5.8 44 1019.4 9.2 S 9.2 0.0 0.0
17:25 18.2 5.4 43 1019.5 6.9 SW 9.2 0.0 0.0
17:26 18.2 6.1 45 1019.4 9.2 SW 9.2 0.0 0.0
17:27 18.3 5.8 44 1019.4 6.0 S 9.2 0.0 0.0
17:28 18.3 6.2 45 1019.4 6.0 WSW 9.2 0.0 0.0
17:29 18.4 5.6 43 1019.4 7.6 SW 9.2 0.0 0.0
17:30 18.5 5.7 43 1019.4 6.9 SW 9.2 0.0 0.0
17:31 18.6 5.4 42 1019.4 8.3 S 9.2 0.0 0.0
17:32 18.7 5.9 43 1019.5 8.3 S 9.2 0.0 0.0
17:33 18.7 5.5 42 1019.4 6.9 S 9.2 0.0 0.0
17:35 18.7 5.5 42 1019.5 6.0 SE 9.2 0.0 0.0
17:36 18.6 5.1 41 1019.4 6.9 S 8.3 0.0 0.0
17:37 18.6 5.4 42 1019.4 6.9 SW 8.3 0.0 0.0
17:38 18.5 5.4 42 1019.4 7.6 SW 8.3 0.0 0.0
17:39 18.6 6.1 44 1019.5 6.0 S 8.3 0.0 0.0
17:40 18.6 5.4 42 1019.3 6.0 SE 8.3 0.0 0.0
17:41 18.6 5.1 41 1019.3 4.5 SW 8.3 0.0 0.0
17:42 18.5 5.0 41 1019.4 9.8 SE 9.8 0.0 0.0
17:43 18.5 5.4 42 1019.5 7.6 SSW 9.8 0.0 0.0
17:44 18.4 5.3 42 1019.4 6.9 S 9.8 0.0 0.0
17:45 18.4 5.6 43 1019.4 4.5 S 9.8 0.0 0.0
17:46 18.3 5.5 43 1019.3 7.6 SW 9.8 0.0 0.0
17:47 18.3 5.2 42 1019.2 4.5 SSW 9.8 0.0 0.0
17:48 18.2 5.1 42 1019.3 4.5 SE 9.8 0.0 0.0
17:49 18.3 5.5 43 1019.3 7.6 S 9.8 0.0 0.0
17:50 18.3 4.8 41 1019.2 6.9 SE 9.8 0.0 0.0
17:51 18.3 4.8 41 1019.2 6.9 S 9.8 0.0 0.0
17:52 18.3 5.2 42 1019.3 6.9 S 9.8 0.0 0.0
17:53 18.4 5.3 42 1019.4 6.9 S 7.6 0.0 0.0
17:55 18.4 5.6 43 1019.5 6.0 SW 7.6 0.0 0.0
17:56 18.5 5.7 43 1019.4 4.5 SW 7.6 0.0 0.0
17:57 18.5 5.7 43 1019.4 4.5 SW 7.6 0.0 0.0
17:58 18.5 5.7 43 1019.3 7.6 S 9.2 0.0 0.0
17:59 18.5 5.7 43 1019.3 6.0 SE 9.2 0.0 0.0
18:00 18.5 5.4 42 1019.5 6.9 SW 9.2 0.0 0.0
18:01 18.5 5.4 42 1019.3 6.9 SW 9.2 0.0 0.0
18:02 18.4 5.3 42 1019.3 6.0 SW 9.2 0.0 0.0
18:03 18.4 5.3 42 1019.5 6.0 S 9.2 0.0 0.0
18:04 18.4 5.3 42 1019.3 4.5 S 9.2 0.0 0.0
18:05 18.3 5.2 42 1019.4 4.5 WSW 9.2 0.0 0.0
18:06 18.3 5.2 42 1019.3 5.4 SE 9.2 0.0 0.0
18:07 18.2 5.1 42 1019.3 3.8 ESE 9.2 0.0 0.0
18:08 18.1 5.0 42 1019.3 6.0 S 7.6 0.0 0.0
18:09 18.1 5.7 44 1019.3 6.9 S 6.9 0.0 0.0
18:10 18.1 5.3 43 1019.3 6.0 SE 6.9 0.0 0.0
18:11 18.0 4.9 42 1019.3 7.6 SSW 7.6 0.0 0.0
18:12 18.0 6.2 46 1019.2 4.5 S 7.6 0.0 0.0
18:14 18.0 5.6 44 1019.3 6.9 S 7.6 0.0 0.0
18:15 18.0 5.2 43 1019.2 6.9 S 7.6 0.0 0.0
18:16 17.9 5.2 43 1019.2 5.4 S 7.6 0.0 0.0
18:17 17.9 5.2 43 1019.2 5.4 S 7.6 0.0 0.0
18:18 17.9 5.2 43 1019.2 6.9 S 8.3 0.0 0.0
18:19 17.9 5.2 43 1019.2 5.4 SW 8.3 0.0 0.0
18:20 17.9 5.2 43 1019.3 6.9 SW 8.3 0.0 0.0
18:21 17.8 5.4 44 1019.3 6.9 S 8.3 0.0 0.0
18:22 17.8 5.4 44 1019.2 4.5 SW 8.3 0.0 0.0
18:23 17.8 5.4 44 1019.1 4.5 S 8.3 0.0 0.0
18:24 17.8 5.4 44 1019.3 6.0 S 8.3 0.0 0.0
18:25 17.8 5.4 44 1019.2 6.0 S 8.3 0.0 0.0
18:26 17.8 5.4 44 1019.4 5.4 SW 8.3 0.0 0.0
18:27 17.7 5.3 44 1019.4 6.0 S 8.3 0.0 0.0
18:28 17.6 5.2 44 1019.1 5.4 S 6.9 0.0 0.0
18:29 17.6 5.2 44 1019.2 6.0 S 6.9 0.0 0.0
18:30 17.5 5.1 44 1019.2 5.4 S 6.9 0.0 0.0
18:31 17.5 5.1 44 1019.2 6.9 SW 6.9 0.0 0.0
18:33 17.3 4.9 44 1019.1 3.1 S 6.9 0.0 0.0
18:34 17.3 5.3 45 1019.4 5.4 S 6.9 0.0 0.0
18:35 17.3 5.3 45 1019.2 5.4 S 6.9 0.0 0.0
18:36 17.2 5.2 45 1019.4 5.4 SW 6.9 0.0 0.0
18:37 17.2 5.2 45 1019.4 4.5 S 6.9 0.0 0.0
18:38 17.2 5.2 45 1019.3 5.4 S 6.9 0.0 0.0
18:39 17.1 5.1 45 1019.2 4.5 S 6.9 0.0 0.0
18:40 17.1 5.1 45 1019.2 5.4 SW 6.9 0.0 0.0
18:41 17.1 5.1 45 1019.2 5.4 S 6.9 0.0 0.0
18:42 17.0 5.3 46 1019.3 4.5 SW 6.0 0.0 0.0
18:43 17.0 5.3 46 1019.2 3.8 S 6.0 0.0 0.0
18:44 17.0 5.3 46 1019.2 5.4 SW 6.0 0.0 0.0
18:45 16.9 5.2 46 1019.1 5.4 SSW 6.0 0.0 0.0
18:46 16.9 5.2 46 1019.2 4.5 SSW 6.0 0.0 0.0
18:47 16.8 5.1 46 1019.2 5.4 S 6.0 0.0 0.0
18:48 16.8 5.1 46 1019.1 4.5 SE 6.0 0.0 0.0
18:49 16.8 5.1 46 1019.3 4.5 S 6.0 0.0 0.0
18:50 16.7 5.0 46 1019.2 3.1 SW 6.0 0.0 0.0
18:52 16.7 5.3 47 1019.2 4.5 SW 6.0 0.0 0.0
18:53 16.7 5.3 47 1019.2 3.8 SE 6.0 0.0 0.0
18:54 16.7 5.3 47 1019.2 3.8 SW 6.0 0.0 0.0
18:55 16.7 5.3 47 1019.3 4.5 S 5.4 0.0 0.0
18:56 16.7 5.3 47 1019.3 4.5 S 5.4 0.0 0.0
18:57 16.7 5.3 47 1019.2 4.5 S 5.4 0.0 0.0
18:58 16.7 5.3 47 1019.2 3.8 W 4.5 0.0 0.0
18:59 16.7 5.3 47 1019.2 4.5 S 4.5 0.0 0.0
19:00 16.7 5.3 47 1019.2 4.5 S 4.5 0.0 0.0
19:01 16.7 5.3 47 1019.1 4.5 S 4.5 0.0 0.0
19:02 16.7 5.6 48 1019.1 5.4 SW 5.4 0.0 0.0
19:03 16.7 5.6 48 1019.3 6.0 SW 6.0 0.0 0.0
19:04 16.7 5.3 47 1019.2 6.9 SW 6.9 0.0 0.0
19:05 16.7 5.6 48 1019.1 4.5 W 6.9 0.0 0.0
19:06 16.7 5.6 48 1019.2 4.5 SW 6.9 0.0 0.0
19:07 16.7 5.6 48 1019.1 5.4 SW 6.9 0.0 0.0
19:08 16.7 5.3 47 1019.2 5.4 S 6.9 0.0 0.0
19:09 16.7 5.3 47 1019.2 4.5 SW 6.9 0.0 0.0
19:10 16.7 5.6 48 1019.2 4.5 W 6.9 0.0 0.0
19:11 16.7 5.6 48 1019.2 4.5 SSW 6.9 0.0 0.0
19:12 16.7 5.6 48 1019.3 6.9 SW 6.9 0.0 0.0
19:13 16.7 5.6 48 1019.2 6.0 S 6.9 0.0 0.0
19:14 16.7 5.6 48 1019.1 3.8 S 6.9 0.0 0.0
19:15 16.7 5.6 48 1019.1 6.9 SW 6.9 0.0 0.0
19:16 16.7 5.6 48 1019.2 4.5 SW 6.9 0.0 0.0
19:17 16.7 5.6 48 1019.2 3.8 S 6.9 0.0 0.0
19:18 16.7 5.6 48 1019.1 6.0 SE 6.9 0.0 0.0
19:19 16.7 5.6 48 1019.1 5.4 SE 6.9 0.0 0.0
19:20 16.7 5.6 48 1019.1 3.8 S 6.9 0.0 0.0
19:21 16.7 5.6 48 1019.1 4.5 SE 6.9 0.0 0.0
19:22 16.7 5.9 49 1019.3 6.0 SW 6.9 0.0 0.0
19:23 16.7 5.9 49 1019.2 6.0 SW 6.9 0.0 0.0
19:24 16.7 5.6 48 1019.3 4.5 SW 6.9 0.0 0.0
19:25 16.7 5.6 48 1019.1 3.8 S 6.9 0.0 0.0
19:26 16.7 5.6 48 1019.1 4.5 SE 6.0 0.0 0.0
19:27 16.6 5.8 49 1019.0 4.5 SW 6.0 0.0 0.0
19:29 16.6 5.8 49 1019.0 3.8 S 6.0 0.0 0.0
19:30 16.6 5.8 49 1019.1 3.8 S 6.0 0.0 0.0
19:31 16.5 5.8 49 1019.1 5.4 SW 6.0 0.0 0.0
19:32 16.5 5.8 49 1019.2 3.8 S 6.0 0.0 0.0
19:33 16.5 5.8 49 1019.1 3.1 SSW 6.0 0.0 0.0
19:34 16.4 5.7 49 1019.2 5.4 SW 5.4 0.0 0.0
19:35 16.4 5.7 49 1019.1 5.4 S 5.4 0.0 0.0
19:36 16.4 5.7 49 1019.2 3.8 W 5.4 0.0 0.0
19:37 16.4 5.7 49 1019.2 3.8 SW 5.4 0.0 0.0
19:38 16.3 5.9 50 1019.1 4.5 S 5.4 0.0 0.0
19:39 16.3 5.9 50 1019.1 5.4 SW 5.4 0.0 0.0
19:40 16.3 5.9 50 1019.2 3.1 SW 5.4 0.0 0.0
19:41 16.3 5.9 50 1019.1 3.1 SW 5.4 0.0 0.0
19:42 16.3 5.9 50 1019.1 3.1 S 5.4 0.0 0.0
19:43 16.3 5.9 50 1019.2 3.8 SE 5.4 0.0 0.0
19:44 16.2 5.8 50 1019.1 3.8 SE 5.4 0.0 0.0
19:45 16.2 5.8 50 1019.1 3.8 S 5.4 0.0 0.0
19:46 16.2 5.8 50 1019.0 3.1 SW 5.4 0.0 0.0
19:48 16.1 6.0 51 1019.1 3.8 SW 5.4 0.0 0.0
19:49 16.1 6.0 51 1018.9 4.5 SW 5.4 0.0 0.0
19:50 16.1 6.0 51 1018.9 4.5 SW 4.5 0.0 0.0
19:51 16.1 6.0 51 1018.9 4.5 SW 4.5 0.0 0.0
19:52 16.0 5.9 51 1019.0 4.5 SW 4.5 0.0 0.0
19:53 16.0 5.9 51 1019.0 3.8 SW 4.5 0.0 0.0
19:54 16.0 5.9 51 1019.0 3.8 S 4.5 0.0 0.0
19:55 16.0 5.9 51 1019.0 3.8 S 4.5 0.0 0.0
19:56 15.9 5.8 51 1019.2 3.8 W 4.5 0.0 0.0
19:57 15.9 5.8 51 1019.1 3.1 SW 4.5 0.0 0.0
19:58 15.9 5.8 51 1019.0 3.1 SW 4.5 0.0 0.0
19:59 15.8 5.7 51 1019.1 3.8 S 4.5 0.0 0.0
20:00 15.8 5.7 51 1019.0 3.8 W 4.5 0.0 0.0
20:01 15.8 5.7 51 1019.1 3.8 W 4.5 0.0 0.0
20:02 15.7 5.6 51 1019.0 3.8 SW 4.5 0.0 0.0
20:03 15.7 5.6 51 1019.1 3.1 W 3.8 0.0 0.0
20:04 15.6 5.5 51 1019.0 2.2 S 3.8 0.0 0.0
20:05 15.5 5.4 51 1019.1 3.8 S 3.8 0.0 0.0
20:07 15.4 5.3 51 1019.1 3.1 SW 3.8 0.0 0.0
20:08 15.3 5.5 52 1019.0 2.2 S 3.8 0.0 0.0
20:09 15.3 5.5 52 1019.1 3.1 SW 3.8 0.0 0.0
20:10 15.2 5.4 52 1019.2 2.2 W 3.8 0.0 0.0
20:11 15.2 5.4 52 1019.2 2.2 NW 3.8 0.0 0.0
20:12 15.1 5.3 52 1019.1 1.6 W 3.8 0.0 0.0
20:13 15.1 5.3 52 1019.0 1.6 SW 3.8 0.0 0.0
20:14 15.0 5.5 53 1019.2 1.6 SW 3.8 0.0 0.0
20:15 15.0 5.5 53 1019.0 0.7 W 3.8 0.0 0.0
20:16 14.9 5.4 53 1019.2 2.2 WSW 3.1 0.0 0.0
20:17 14.9 5.4 53 1019.1 3.1 S 3.1 0.0 0.0
20:18 14.9 5.4 53 1019.1 2.2 S 3.1 0.0 0.0
20:19 14.9 5.4 53 1019.2 2.2 S 3.1 0.0 0.0
20:20 14.8 5.3 53 1019.2 2.2 SE 3.1 0.0 0.0
20:21 14.7 5.2 53 1019.1 2.2 SE 3.1 0.0 0.0
20:22 14.7 5.2 53 1019.2 2.2 SW 3.1 0.0 0.0
20:23 14.7 5.2 53 1019.0 1.6 SW 3.1 0.0 0.0
20:25 14.6 5.4 54 1019.1 2.2 S 3.1 0.0 0.0
20:26 14.5 5.3 54 1019.3 2.2 S 3.1 0.0 0.0
20:27 14.5 5.3 54 1019.2 1.6 S 2.2 0.0 0.0
20:28 14.4 5.2 54 1019.1 1.6 SW 2.2 0.0 0.0
20:29 14.4 5.2 54 1019.1 1.6 SW 2.2 0.0 0.0
20:30 14.3 5.1 54 1019.0 1.6 SW 2.2 0.0 0.0
20:31 14.3 5.1 54 1019.0 1.6 SW 2.2 0.0 0.0
20:32 14.3 5.1 54 1019.0 1.6 SE 2.2 0.0 0.0
20:33 14.2 5.0 54 1019.0 1.6 SE 2.2 0.0 0.0
20:34 14.2 5.3 55 1019.0 2.2 SE 2.2 0.0 0.0
20:35 14.2 5.3 55 1019.0 2.2 SE 2.2 0.0 0.0
20:36 14.2 5.3 55 1018.9 2.2 SE 2.2 0.0 0.0
20:37 14.1 5.2 55 1019.2 2.2 SE 2.2 0.0 0.0
20:38 14.1 5.2 55 1019.0 2.2 SE 2.2 0.0 0.0
20:39 14.1 5.2 55 1019.0 1.6 SE 2.2 0.0 0.0
20:40 14.0 5.1 55 1019.2 1.6 SE 2.2 0.0 0.0
20:41 14.0 5.1 55 1019.2 1.6 SE 2.2 0.0 0.0
20:42 14.0 5.1 55 1019.2 1.6 SE 2.2 0.0 0.0
20:43 14.0 5.1 55 1019.2 2.2 S 2.2 0.0 0.0
20:45 13.9 5.0 55 1019.2 1.6 S 2.2 0.0 0.0
20:46 13.8 4.9 55 1019.2 0.7 S 2.2 0.0 0.0
20:47 13.8 5.2 56 1019.3 0.0 S 2.2 0.0 0.0
20:48 13.8 5.2 56 1019.2 0.0 S 2.2 0.0 0.0
20:49 13.8 5.2 56 1019.1 0.0 S 2.2 0.0 0.0
20:50 13.7 5.1 56 1019.3 0.0 S 2.2 0.0 0.0
20:51 13.7 5.1 56 1019.3 0.0 S 2.2 0.0 0.0
20:52 13.7 5.1 56 1019.2 0.0 S 2.2 0.0 0.0
20:53 13.7 5.1 56 1019.2 0.0 S 2.2 0.0 0.0
20:54 13.6 5.0 56 1019.3 0.0 S 1.6 0.0 0.0
20:55 13.6 5.0 56 1019.3 0.0 S 1.6 0.0 0.0
20:56 13.6 5.0 56 1019.4 0.0 S 0.7 0.0 0.0
20:57 13.6 5.0 56 1019.2 0.0 S 0.0 0.0 0.0
20:58 13.6 5.0 56 1019.1 0.0 S 0.0 0.0 0.0
20:59 13.5 4.9 56 1019.2 0.7 S 0.7 0.0 0.0
21:00 13.5 4.9 56 1019.1 0.0 S 0.7 0.0 0.0
21:01 13.5 4.9 56 1019.1 0.0 S 0.7 0.0 0.0
21:03 13.5 4.9 56 1019.1 0.0 S 0.7 0.0 0.0
21:04 13.5 4.9 56 1019.2 0.0 S 0.7 0.0 0.0
21:05 13.3 5.0 57 1019.2 0.0 S 0.7 0.0 0.0
21:06 13.3 5.0 57 1019.3 0.0 S 0.7 0.0 0.0
21:07 13.2 4.9 57 1019.2 0.0 S 0.7 0.0 0.0
21:08 13.2 4.9 57 1019.2 0.0 S 0.7 0.0 0.0
21:09 13.2 4.9 57 1019.2 0.0 S 0.0 0.0 0.0
21:10 13.1 4.8 57 1019.2 0.7 S 0.7 0.0 0.0
21:11 13.1 4.8 57 1019.2 0.0 S 0.7 0.0 0.0
21:12 13.1 4.8 57 1019.3 0.0 S 0.7 0.0 0.0
21:13 13.1 4.8 57 1019.4 0.0 S 0.7 0.0 0.0
21:14 13.1 4.8 57 1019.2 0.0 S 0.7 0.0 0.0
21:15 13.1 4.8 57 1019.2 0.0 S 0.7 0.0 0.0
21:16 13.1 4.8 57 1019.1 0.0 S 0.7 0.0 0.0
21:17 13.1 4.8 57 1019.2 0.0 S 0.7 0.0 0.0
21:18 13.0 4.7 57 1019.2 0.0 S 0.7 0.0 0.0
21:19 13.0 4.7 57 1019.2 0.0 S 0.7 0.0 0.0
21:20 13.0 4.7 57 1019.3 0.0 S 0.7 0.0 0.0
21:21 13.0 4.7 57 1019.2 0.7 S 1.6 0.0 0.0
21:22 12.9 4.6 57 1019.3 0.0 S 1.6 0.0 0.0
21:24 12.8 4.5 57 1019.5 0.0 S 1.6 0.0 0.0
21:25 12.7 4.4 57 1019.3 0.0 S 1.6 0.0 0.0
21:26 12.7 4.4 57 1019.4 0.7 S 1.6 0.0 0.0
21:27 12.7 4.4 57 1019.4 0.0 S 1.6 0.0 0.0
21:28 12.6 4.3 57 1019.4 0.0 S 1.6 0.0 0.0
21:29 12.6 4.6 58 1019.4 0.0 S 1.6 0.0 0.0
21:30 12.6 4.6 58 1019.6 0.0 S 0.7 0.0 0.0
21:31 12.5 4.5 58 1019.6 0.0 S 0.7 0.0 0.0
21:32 12.5 4.5 58 1019.4 0.0 S 0.7 0.0 0.0
21:33 12.5 4.5 58 1019.6 0.0 S 0.7 0.0 0.0
21:34 12.5 4.5 58 1019.6 0.0 S 0.7 0.0 0.0
21:35 12.5 4.5 58 1019.5 0.0 S 0.7 0.0 0.0
21:36 12.4 4.4 58 1019.5 0.0 S 0.7 0.0 0.0
21:37 12.3 4.3 58 1019.5 0.0 S 0.0 0.0 0.0
21:38 12.3 4.3 58 1019.5 0.0 S 0.0 0.0 0.0
21:39 12.3 4.3 58 1019.4 0.0 S 0.0 0.0 0.0
21:40 12.2 4.2 58 1019.4 0.0 S 0.0 0.0 0.0
21:41 12.1 4.1 58 1019.5 0.0 S 0.0 0.0 0.0
21:42 12.1 4.1 58 1019.4 0.0 S 0.0 0.0 0.0
21:43 12.0 4.0 58 1019.2 0.0 S 0.0 0.0 0.0
21:44 12.0 4.0 58 1019.4 0.0 S 0.0 0.0 0.0
21:45 12.0 4.0 58 1019.5 0.0 S 0.0 0.0 0.0
21:46 12.0 4.0 58 1019.5 0.0 S 0.0 0.0 0.0
21:47 11.9 3.9 58 1019.4 0.0 S 0.0 0.0 0.0
21:48 11.9 4.1 59 1019.5 0.0 S 0.0 0.0 0.0
21:49 11.9 4.1 59 1019.4 0.0 S 0.0 0.0 0.0
21:50 11.9 4.1 59 1019.3 0.0 S 0.0 0.0 0.0
21:51 11.9 4.1 59 1019.3 0.0 S 0.0 0.0 0.0
21:52 11.9 4.1 59 1019.3 0.0 S 0.0 0.0 0.0
21:53 11.8 4.1 59 1019.3 0.0 S 0.0 0.0 0.0
21:54 11.8 4.1 59 1019.5 0.0 S 0.0 0.0 0.0
21:55 11.8 4.1 59 1019.4 0.0 S 0.0 0.0 0.0
21:56 11.8 4.1 59 1019.4 0.0 S 0.0 0.0 0.0
21:57 11.7 4.0 59 1019.3 0.0 S 0.0 0.0 0.0
21:58 11.7 4.0 59 1019.3 0.0 S 0.0 0.0 0.0
21:59 11.7 4.0 59 1019.1 0.0 S 0.0 0.0 0.0
22:00 11.6 3.9 59 1019.3 0.0 S 0.0 0.0 0.0
22:01 11.6 3.9 59 1019.3 0.0 S 0.0 0.0 0.0
22:02 11.6 3.9 59 1019.3 0.0 S 0.0 0.0 0.0
22:03 11.6 3.9 59 1019.3 0.0 S 0.0 0.0 0.0
22:04 11.6 3.9 59 1019.2 0.0 S 0.0 0.0 0.0
22:05 11.5 4.0 60 1019.4 0.0 S 0.0 0.0 0.0
22:06 11.5 4.0 60 1019.1 0.0 S 0.0 0.0 0.0
22:07 11.5 4.0 60 1019.3 0.0 S 0.0 0.0 0.0
22:08 11.5 4.0 60 1019.1 0.0 S 0.0 0.0 0.0
22:09 11.4 3.9 60 1019.0 0.0 S 0.0 0.0 0.0
22:10 11.4 3.9 60 1019.1 0.0 S 0.0 0.0 0.0
22:11 11.4 3.9 60 1019.1 0.0 NE 0.0 0.0 0.0
22:12 11.4 4.1 61 1019.1 0.0 NE 0.0 0.0 0.0
22:13 11.4 4.1 61 1019.1 0.0 NE 0.0 0.0 0.0
22:14 11.4 4.1 61 1019.1 0.0 NE 0.0 0.0 0.0
22:15 11.4 4.1 61 1019.0 0.0 NE 0.0 0.0 0.0
22:16 11.4 4.1 61 1018.9 0.0 NE 0.0 0.0 0.0
22:17 11.4 4.1 61 1018.9 0.0 NE 0.0 0.0 0.0
22:18 11.4 4.1 61 1018.9 0.7 NE 0.7 0.0 0.0
22:19 11.4 4.1 61 1018.7 2.2 NE 2.2 0.0 0.0
22:20 11.4 4.1 61 1018.7 2.2 NE 2.2 0.0 0.0
22:21 11.3 4.1 61 1018.7 2.2 NE 3.1 0.0 0.0
22:22 11.3 4.1 61 1018.7 3.1 NE 3.1 0.0 0.0
22:23 11.4 4.1 61 1018.6 2.2 NE 3.1 0.0 0.0
22:24 11.4 4.1 61 1018.9 0.7 NE 3.1 0.0 0.0
22:25 11.3 4.1 61 1018.8 0.0 NE 3.1 0.0 0.0
22:26 11.4 4.1 61 1019.0 0.0 NE 3.1 0.0 0.0
22:27 11.3 4.1 61 1018.9 0.0 NE 3.1 0.0 0.0
22:28 11.4 4.1 61 1018.9 0.0 NE 3.1 0.0 0.0
22:29 11.3 4.1 61 1018.9 0.0 NW 3.1 0.0 0.0
22:30 11.3 4.1 61 1018.9 0.0 NW 3.1 0.0 0.0
22:31 11.2 4.0 61 1018.9 0.0 NW 3.1 0.0 0.0
22:32 11.2 4.0 61 1018.9 0.0 NW 2.2 0.0 0.0
22:33 11.2 4.0 61 1018.8 0.0 NW 1.6 0.0 0.0
22:34 11.1 3.9 61 1019.0 0.0 NW 0.7 0.0 0.0
22:35 11.1 3.9 61 1018.9 0.0 NW 0.0 0.0 0.0
22:36 11.1 3.9 61 1018.9 0.0 NW 0.0 0.0 0.0
22:37 11.0 3.8 61 1018.9 0.0 NW 0.0 0.0 0.0
22:38 11.0 3.8 61 1018.8 0.0 NW 0.0 0.0 0.0
22:39 11.0 3.8 61 1018.8 0.0 NW 0.0 0.0 0.0
22:40 10.9 3.7 61 1018.8 0.0 NW 0.0 0.0 0.0
22:41 10.9 3.7 61 1018.8 0.0 NW 0.0 0.0 0.0
22:42 10.9 3.7 61 1018.7 0.0 NW 0.0 0.0 0.0
22:43 10.8 3.6 61 1018.8 0.0 NW 0.0 0.0 0.0
22:44 10.8 3.6 61 1018.9 0.0 NW 0.0 0.0 0.0
22:45 10.8 3.6 61 1018.9 0.0 NW 0.0 0.0 0.0
22:46 10.7 3.5 61 1018.8 0.0 NW 0.0 0.0 0.0
22:47 10.7 3.5 61 1018.8 0.0 NW 0.0 0.0 0.0
22:48 10.7 3.5 61 1018.7 0.0 NW 0.0 0.0 0.0
22:49 10.6 3.4 61 1018.9 0.0 NW 0.0 0.0 0.0
22:50 10.6 3.4 61 1018.9 0.0 NW 0.0 0.0 0.0
22:51 10.5 3.3 61 1018.9 0.0 NW 0.0 0.0 0.0
22:52 10.5 3.3 61 1018.8 0.0 N 0.0 0.0 0.0
22:53 10.5 3.5 62 1018.8 0.0 N 0.0 0.0 0.0
22:54 10.5 3.5 62 1018.8 0.0 N 0.0 0.0 0.0
22:55 10.5 3.5 62 1018.8 0.0 N 0.0 0.0 0.0
22:56 10.4 3.4 62 1018.9 0.0 N 0.0 0.0 0.0
22:57 10.4 3.4 62 1018.9 0.0 NE 0.0 0.0 0.0
22:58 10.3 3.3 62 1018.9 0.0 E 0.0 0.0 0.0
22:59 10.4 3.4 62 1018.7 0.0 E 0.0 0.0 0.0
23:00 10.3 3.3 62 1018.8 0.0 E 0.0 0.0 0.0
23:01 10.3 3.3 62 1018.9 0.0 E 0.0 0.0 0.0
23:02 10.3 3.3 62 1018.9 0.0 E 0.0 0.0 0.0
23:03 10.3 3.3 62 1018.7 0.0 E 0.0 0.0 0.0
23:04 10.3 3.3 62 1018.8 0.0 E 0.0 0.0 0.0
23:05 10.3 3.3 62 1018.7 0.0 E 0.0 0.0 0.0
23:06 10.3 3.3 62 1018.7 0.0 E 0.0 0.0 0.0
23:07 10.2 3.2 62 1018.7 0.0 E 0.0 0.0 0.0
23:08 10.2 3.2 62 1019.0 0.0 E 0.0 0.0 0.0
23:09 10.2 3.2 62 1018.8 0.0 E 0.0 0.0 0.0
23:10 10.2 3.5 63 1018.9 0.0 E 0.0 0.0 0.0
23:11 10.2 3.2 62 1018.9 0.0 E 0.0 0.0 0.0
23:12 10.2 3.2 62 1018.8 0.0 E 0.0 0.0 0.0
23:13 10.2 3.2 62 1018.8 0.0 E 0.0 0.0 0.0
23:14 10.2 3.2 62 1018.8 0.0 E 0.0 0.0 0.0
23:15 10.1 3.4 63 1018.7 0.0 E 0.0 0.0 0.0
23:16 10.1 3.4 63 1018.8 0.0 E 0.0 0.0 0.0
23:17 10.1 3.2 62 1018.9 0.0 E 0.0 0.0 0.0
23:18 10.2 3.5 63 1018.8 0.0 E 0.0 0.0 0.0
23:19 10.1 3.4 63 1018.8 0.0 E 0.0 0.0 0.0
23:20 10.1 3.4 63 1018.9 0.0 E 0.0 0.0 0.0
23:21 10.1 3.4 63 1018.8 0.0 E 0.0 0.0 0.0
23:22 10.1 3.4 63 1018.8 0.0 E 0.0 0.0 0.0
23:23 10.1 3.4 63 1018.8 0.0 E 0.0 0.0 0.0
23:24 10.0 3.3 63 1018.7 0.0 E 0.0 0.0 0.0
23:25 10.1 3.4 63 1018.7 0.0 E 0.0 0.0 0.0
23:26 10.0 3.3 63 1018.8 0.0 E 0.0 0.0 0.0
23:27 10.0 3.3 63 1018.8 0.0 E 0.0 0.0 0.0
23:28 9.9 3.2 63 1018.6 0.0 E 0.0 0.0 0.0
23:29 10.0 3.3 63 1018.7 0.0 E 0.0 0.0 0.0
23:30 10.0 3.3 63 1018.7 0.0 E 0.0 0.0 0.0
23:31 10.0 3.3 63 1018.7 0.0 E 0.0 0.0 0.0
23:32 10.0 3.3 63 1018.7 0.0 E 0.0 0.0 0.0
23:33 9.9 3.2 63 1018.7 0.0 N 0.0 0.0 0.0
23:34 9.9 3.2 63 1018.6 0.0 N 0.0 0.0 0.0
23:35 9.9 3.2 63 1018.6 0.0 N 0.0 0.0 0.0
23:36 9.9 3.2 63 1018.7 0.0 N 0.0 0.0 0.0
23:37 9.9 3.2 63 1018.7 0.0 N 0.0 0.0 0.0
23:38 9.9 3.2 63 1018.7 0.0 N 0.0 0.0 0.0
23:39 9.9 3.2 63 1018.6 0.0 SE 0.0 0.0 0.0
23:40 9.8 3.1 63 1018.6 0.0 SE 0.0 0.0 0.0
23:41 9.8 3.1 63 1018.6 0.0 SE 0.0 0.0 0.0
23:42 9.8 3.1 63 1018.7 0.0 SE 0.0 0.0 0.0
23:43 9.7 3.0 63 1018.7 0.0 SE 0.0 0.0 0.0
23:44 9.7 3.0 63 1018.7 0.0 SE 0.0 0.0 0.0
23:45 9.7 3.0 63 1018.7 0.0 SE 0.0 0.0 0.0
23:46 9.6 2.9 63 1018.6 0.0 SE 0.0 0.0 0.0
23:47 9.5 2.8 63 1018.7 0.0 SE 0.0 0.0 0.0
23:48 9.6 2.9 63 1018.6 0.0 SE 0.0 0.0 0.0
23:49 9.6 2.9 63 1018.6 0.0 SE 0.0 0.0 0.0
23:50 9.5 2.8 63 1018.7 0.0 SE 0.0 0.0 0.0
23:51 9.5 2.8 63 1018.7 0.0 SE 0.0 0.0 0.0
23:52 9.5 2.8 63 1018.7 0.0 SE 0.0 0.0 0.0
23:53 9.5 2.8 63 1018.7 0.0 SE 0.0 0.0 0.0
23:54 9.5 3.0 64 1018.7 0.0 SE 0.0 0.0 0.0
23:55 9.4 2.9 64 1018.6 0.0 SE 0.0 0.0 0.0
23:56 9.4 2.9 64 1018.5 0.0 SE 0.0 0.0 0.0
23:57 9.4 2.9 64 1018.5 0.0 SE 0.0 0.0 0.0
23:58 9.4 2.9 64 1018.5 0.0 SE 0.0 0.0 0.0
23:59 9.4 2.9 64 1018.5 0.0 SE 0.0 0.0 0.0

UK - WEATHER STATION TOPSITES - UK World Weather Websites

This is a private weather station, never base important decisions or events on data from this weather station. Although every effort has been made to make the data as accurate as possible it does not meet MetOffice standards. It is proved as a guide of local weather conditions. We accept no liability for any loss which may arise from use of the data.

Copyright © Carnkie Weather 2009 - 2019.